Time,TemperatureF,DewpointF,PressureIn,WindDirection,WindDirectionDegrees,WindSpeedMPH,WindSpeedGustMPH,Humidity,HourlyPrecipIn,Conditions,Clouds,dailyrainin,SoftwareType,DateUTC
2013-04-20 00:00:00,46.4,9.6,25.93,North,1,0.0,3.6,22,0.00,,,0.00,VWS V14.00,2013-04-20 05:00:00,
2013-04-20 00:01:00,46.6,9.8,25.93,North,1,0.0,3.6,22,0.00,,,0.00,VWS V14.00,2013-04-20 05:01:00,
2013-04-20 00:03:00,46.6,9.8,25.93,North,1,0.0,3.6,22,0.00,,,0.00,VWS V14.00,2013-04-20 05:03:00,
2013-04-20 00:04:00,46.8,9.9,25.93,North,1,0.0,3.6,22,0.00,,,0.00,VWS V14.00,2013-04-20 05:04:00,
2013-04-20 00:05:00,46.8,9.9,25.93,North,1,0.0,3.6,22,0.00,,,0.00,VWS V14.00,2013-04-20 05:05:00,
2013-04-20 00:08:00,46.9,10.1,25.93,North,1,0.0,3.6,22,0.00,,,0.00,VWS V14.00,2013-04-20 05:08:00,
2013-04-20 00:09:00,46.9,10.1,25.93,North,1,0.0,3.6,22,0.00,,,0.00,VWS V14.00,2013-04-20 05:09:00,
2013-04-20 00:10:00,46.9,10.1,25.93,North,1,0.0,3.6,22,0.00,,,0.00,VWS V14.00,2013-04-20 05:10:00,
2013-04-20 00:11:00,46.8,9.9,25.93,North,1,0.0,3.6,22,0.00,,,0.00,VWS V14.00,2013-04-20 05:11:00,
2013-04-20 00:14:00,46.4,9.6,25.93,North,1,0.0,0.0,22,0.00,,,0.00,VWS V14.00,2013-04-20 05:14:00,
2013-04-20 00:15:00,46.4,9.6,25.93,North,1,0.0,0.0,22,0.00,,,0.00,VWS V14.00,2013-04-20 05:15:00,
2013-04-20 00:16:00,46.4,9.6,25.93,North,1,0.0,0.0,22,0.00,,,0.00,VWS V14.00,2013-04-20 05:16:00,
2013-04-20 00:20:00,45.7,10.0,25.93,North,1,0.0,0.0,23,0.00,,,0.00,VWS V14.00,2013-04-20 05:20:00,
2013-04-20 00:21:00,45.5,9.9,25.93,North,1,0.0,0.0,23,0.00,,,0.00,VWS V14.00,2013-04-20 05:21:00,
2013-04-20 00:22:00,45.3,9.7,25.93,North,1,0.0,0.0,23,0.00,,,0.00,VWS V14.00,2013-04-20 05:22:00,
2013-04-20 00:23:00,45.1,9.6,25.93,North,1,0.0,0.0,23,0.00,,,0.00,VWS V14.00,2013-04-20 05:23:00,
2013-04-20 00:25:00,44.8,9.3,25.93,North,1,0.0,0.0,23,0.00,,,0.00,VWS V14.00,2013-04-20 05:25:00,
2013-04-20 00:26:00,44.8,9.3,25.93,North,1,0.0,0.0,23,0.00,,,0.00,VWS V14.00,2013-04-20 05:26:00,
2013-04-20 00:27:00,44.8,9.3,25.93,North,1,0.0,0.0,23,0.00,,,0.00,VWS V14.00,2013-04-20 05:27:00,
2013-04-20 00:29:00,45.3,9.7,25.93,North,1,0.0,0.0,23,0.00,,,0.00,VWS V14.00,2013-04-20 05:29:00,
2013-04-20 00:30:00,45.3,9.7,25.93,North,1,0.0,0.0,23,0.00,,,0.00,VWS V14.00,2013-04-20 05:30:00,
2013-04-20 00:32:00,45.3,9.7,25.93,North,1,0.0,0.0,23,0.00,,,0.00,VWS V14.00,2013-04-20 05:32:00,
2013-04-20 00:33:00,45.1,9.6,25.93,North,1,0.0,0.0,23,0.00,,,0.00,VWS V14.00,2013-04-20 05:33:00,
2013-04-20 00:35:00,45.1,9.6,25.93,North,1,0.0,0.0,23,0.00,,,0.00,VWS V14.00,2013-04-20 05:35:00,
2013-04-20 00:36:00,45.1,9.6,25.93,North,1,0.0,0.0,23,0.00,,,0.00,VWS V14.00,2013-04-20 05:36:00,
2013-04-20 00:37:00,45.3,9.7,25.93,North,1,0.0,2.2,23,0.00,,,0.00,VWS V14.00,2013-04-20 05:37:00,
2013-04-20 00:38:00,45.3,9.7,25.93,North,1,0.0,2.2,23,0.00,,,0.00,VWS V14.00,2013-04-20 05:38:00,
2013-04-20 00:39:00,45.3,9.7,25.93,North,1,3.6,3.6,23,0.00,,,0.00,VWS V14.00,2013-04-20 05:39:00,
2013-04-20 00:40:00,45.7,10.0,25.93,North,1,0.0,3.6,23,0.00,,,0.00,VWS V14.00,2013-04-20 05:40:00,
2013-04-20 00:42:00,46.2,10.5,25.93,North,1,0.0,3.6,23,0.00,,,0.00,VWS V14.00,2013-04-20 05:42:00,
2013-04-20 00:43:00,46.2,10.5,25.93,North,1,0.0,0.0,23,0.00,,,0.00,VWS V14.00,2013-04-20 05:43:00,
2013-04-20 00:44:00,46.4,9.6,25.93,North,1,0.0,0.0,22,0.00,,,0.00,VWS V14.00,2013-04-20 05:44:00,
2013-04-20 00:45:00,46.4,9.6,25.93,North,1,0.0,0.0,22,0.00,,,0.00,VWS V14.00,2013-04-20 05:45:00,
2013-04-20 00:48:00,47.1,10.2,25.93,North,1,0.0,3.6,22,0.00,,,0.00,VWS V14.00,2013-04-20 05:48:00,
2013-04-20 00:49:00,46.9,10.1,25.93,North,1,0.0,3.6,22,0.00,,,0.00,VWS V14.00,2013-04-20 05:49:00,
2013-04-20 00:50:00,47.3,10.4,25.90,North,1,3.6,3.6,22,0.00,,,0.00,VWS V14.00,2013-04-20 05:50:00,
2013-04-20 00:51:00,47.3,10.4,25.90,NW,308,5.4,5.4,22,0.00,,,0.00,VWS V14.00,2013-04-20 05:51:00,
2013-04-20 00:53:00,47.7,10.7,25.90,NW,308,3.6,5.4,22,0.00,,,0.00,VWS V14.00,2013-04-20 05:53:00,
2013-04-20 00:54:00,47.8,10.9,25.90,NW,308,2.7,5.4,22,0.00,,,0.00,VWS V14.00,2013-04-20 05:54:00,
2013-04-20 00:55:00,47.8,10.9,25.90,NW,308,3.6,5.4,22,0.00,,,0.00,VWS V14.00,2013-04-20 05:55:00,
2013-04-20 00:56:00,48.0,11.0,25.90,NW,308,3.6,5.4,22,0.00,,,0.00,VWS V14.00,2013-04-20 05:56:00,
2013-04-20 00:58:00,48.2,11.1,25.90,NW,308,0.0,0.0,22,0.00,,,0.00,VWS V14.00,2013-04-20 05:58:00,
2013-04-20 00:59:00,48.0,11.0,25.90,NW,308,0.0,0.0,22,0.00,,,0.00,VWS V14.00,2013-04-20 05:59:00,
2013-04-20 01:00:00,47.8,10.9,25.90,NW,308,0.0,0.0,22,0.00,,,0.00,VWS V14.00,2013-04-20 06:00:00,
2013-04-20 01:01:00,47.3,10.4,25.90,NW,308,0.0,0.0,22,0.00,,,0.00,VWS V14.00,2013-04-20 06:01:00,
2013-04-20 01:03:00,46.9,10.1,25.90,NW,308,0.0,0.0,22,0.00,,,0.00,VWS V14.00,2013-04-20 06:03:00,
2013-04-20 01:04:00,46.8,9.9,25.90,NW,308,0.0,0.0,22,0.00,,,0.00,VWS V14.00,2013-04-20 06:04:00,
2013-04-20 01:05:00,46.2,10.5,25.90,NW,308,0.0,0.0,23,0.00,,,0.00,VWS V14.00,2013-04-20 06:05:00,
2013-04-20 01:08:00,46.4,9.6,25.90,NW,308,0.0,0.0,22,0.00,,,0.00,VWS V14.00,2013-04-20 06:08:00,
2013-04-20 01:09:00,46.4,9.6,25.90,NW,308,0.0,0.0,22,0.00,,,0.00,VWS V14.00,2013-04-20 06:09:00,
2013-04-20 01:12:00,46.2,10.5,25.90,SW,223,2.2,5.4,23,0.00,,,0.00,VWS V14.00,2013-04-20 06:12:00,
2013-04-20 01:13:00,46.0,10.3,25.90,SW,224,3.1,5.4,23,0.00,,,0.00,VWS V14.00,2013-04-20 06:13:00,
2013-04-20 01:14:00,46.4,9.6,25.90,SW,225,2.7,3.1,22,0.00,,,0.00,VWS V14.00,2013-04-20 06:14:00,
2013-04-20 01:15:00,46.8,9.9,25.90,SW,224,3.6,3.6,22,0.00,,,0.00,VWS V14.00,2013-04-20 06:15:00,
2013-04-20 01:18:00,46.9,10.1,25.90,SW,224,0.0,3.6,22,0.00,,,0.00,VWS V14.00,2013-04-20 06:18:00,
2013-04-20 01:19:00,46.8,9.9,25.90,SW,224,0.0,3.6,22,0.00,,,0.00,VWS V14.00,2013-04-20 06:19:00,
2013-04-20 01:21:00,46.6,9.8,25.90,SW,225,0.0,3.6,22,0.00,,,0.00,VWS V14.00,2013-04-20 06:21:00,
2013-04-20 01:23:00,46.2,10.5,25.90,SW,225,0.0,3.6,23,0.00,,,0.00,VWS V14.00,2013-04-20 06:23:00,
2013-04-20 01:24:00,46.2,10.5,25.90,SW,224,2.7,3.6,23,0.00,,,0.00,VWS V14.00,2013-04-20 06:24:00,
2013-04-20 01:25:00,46.0,10.3,25.90,SW,224,2.7,3.6,23,0.00,,,0.00,VWS V14.00,2013-04-20 06:25:00,
2013-04-20 01:26:00,46.0,10.3,25.90,SW,224,0.0,3.6,23,0.00,,,0.00,VWS V14.00,2013-04-20 06:26:00,
2013-04-20 01:28:00,46.0,10.3,25.90,SW,224,0.0,0.0,23,0.00,,,0.00,VWS V14.00,2013-04-20 06:28:00,
2013-04-20 01:30:00,46.0,10.3,25.90,SW,224,0.0,0.0,23,0.00,,,0.00,VWS V14.00,2013-04-20 06:30:00,
2013-04-20 01:31:00,45.9,10.2,25.90,SW,224,0.0,0.0,23,0.00,,,0.00,VWS V14.00,2013-04-20 06:31:00,
2013-04-20 01:32:00,45.7,10.0,25.90,SW,224,0.0,0.0,23,0.00,,,0.00,VWS V14.00,2013-04-20 06:32:00,
2013-04-20 01:34:00,45.5,9.9,25.90,SW,224,0.0,0.0,23,0.00,,,0.00,VWS V14.00,2013-04-20 06:34:00,
2013-04-20 01:36:00,45.0,9.4,25.87,SW,224,0.0,0.0,23,0.00,,,0.00,VWS V14.00,2013-04-20 06:36:00,
2013-04-20 01:37:00,45.0,9.4,25.87,SW,224,0.0,0.0,23,0.00,,,0.00,VWS V14.00,2013-04-20 06:37:00,
2013-04-20 01:39:00,44.8,9.3,25.87,SW,224,0.0,0.0,23,0.00,,,0.00,VWS V14.00,2013-04-20 06:39:00,
2013-04-20 01:41:00,45.5,9.9,25.87,SW,224,0.0,0.0,23,0.00,,,0.00,VWS V14.00,2013-04-20 06:41:00,
2013-04-20 01:42:00,45.5,9.9,25.87,SW,224,0.0,0.0,23,0.00,,,0.00,VWS V14.00,2013-04-20 06:42:00,
2013-04-20 01:43:00,45.7,10.0,25.87,SW,224,0.0,0.0,23,0.00,,,0.00,VWS V14.00,2013-04-20 06:43:00,
2013-04-20 01:45:00,45.5,9.9,25.87,SW,224,0.0,0.0,23,0.00,,,0.00,VWS V14.00,2013-04-20 06:45:00,
2013-04-20 01:47:00,45.3,9.7,25.87,SW,224,0.0,0.0,23,0.00,,,0.00,VWS V14.00,2013-04-20 06:47:00,
2013-04-20 01:48:00,45.3,9.7,25.87,SW,224,0.0,0.0,23,0.00,,,0.00,VWS V14.00,2013-04-20 06:48:00,
2013-04-20 01:50:00,45.3,9.7,25.87,SW,224,0.0,0.0,23,0.00,,,0.00,VWS V14.00,2013-04-20 06:50:00,
2013-04-20 01:52:00,45.0,9.4,25.87,SW,224,0.0,0.0,23,0.00,,,0.00,VWS V14.00,2013-04-20 06:52:00,
2013-04-20 01:53:00,45.0,9.4,25.87,SW,224,0.0,0.0,23,0.00,,,0.00,VWS V14.00,2013-04-20 06:53:00,
2013-04-20 01:55:00,44.8,9.3,25.87,SW,224,0.0,0.0,23,0.00,,,0.00,VWS V14.00,2013-04-20 06:55:00,
2013-04-20 01:56:00,45.0,9.4,25.87,SW,224,0.0,0.0,23,0.00,,,0.00,VWS V14.00,2013-04-20 06:56:00,
2013-04-20 01:59:00,44.6,9.1,25.87,SW,224,0.0,0.0,23,0.00,,,0.00,VWS V14.00,2013-04-20 06:59:00,
2013-04-20 02:00:00,44.4,8.9,25.87,SW,224,0.0,0.0,23,0.00,,,0.00,VWS V14.00,2013-04-20 07:00:00,
2013-04-20 02:03:00,44.2,8.8,25.87,SW,224,0.0,0.0,23,0.00,,,0.00,VWS V14.00,2013-04-20 07:03:00,
2013-04-20 02:04:00,44.2,8.8,25.90,SW,224,0.0,0.0,23,0.00,,,0.00,VWS V14.00,2013-04-20 07:04:00,
2013-04-20 02:05:00,44.4,8.9,25.90,SW,224,0.0,0.0,23,0.00,,,0.00,VWS V14.00,2013-04-20 07:05:00,
2013-04-20 02:06:00,44.4,8.9,25.90,SW,224,0.0,0.0,23,0.00,,,0.00,VWS V14.00,2013-04-20 07:06:00,
2013-04-20 02:09:00,44.8,9.3,25.90,SW,224,2.2,2.2,23,0.00,,,0.00,VWS V14.00,2013-04-20 07:09:00,
2013-04-20 02:10:00,44.6,9.1,25.90,SW,225,0.0,2.7,23,0.00,,,0.00,VWS V14.00,2013-04-20 07:10:00,
2013-04-20 02:11:00,45.1,9.6,25.90,SW,224,2.7,4.0,23,0.00,,,0.00,VWS V14.00,2013-04-20 07:11:00,
2013-04-20 02:12:00,45.3,9.7,25.90,SW,224,0.0,4.0,23,0.00,,,0.00,VWS V14.00,2013-04-20 07:12:00,
2013-04-20 02:15:00,46.4,9.6,25.90,SW,220,3.1,5.4,22,0.00,,,0.00,VWS V14.00,2013-04-20 07:15:00,
2013-04-20 02:16:00,46.9,10.1,25.90,SSW,211,4.9,5.4,22,0.00,,,0.00,VWS V14.00,2013-04-20 07:16:00,
2013-04-20 02:18:00,46.8,9.9,25.90,SSW,211,3.1,5.4,22,0.00,,,0.00,VWS V14.00,2013-04-20 07:18:00,
2013-04-20 02:19:00,46.9,10.1,25.87,SSW,209,4.0,5.4,22,0.00,,,0.00,VWS V14.00,2013-04-20 07:19:00,
2013-04-20 02:20:00,47.1,10.2,25.87,SW,221,4.0,5.4,22,0.00,,,0.00,VWS V14.00,2013-04-20 07:20:00,
2013-04-20 02:21:00,47.3,10.4,25.87,SSW,211,2.2,5.4,22,0.00,,,0.00,VWS V14.00,2013-04-20 07:21:00,
2013-04-20 02:23:00,48.2,11.1,25.87,SSW,213,3.6,5.8,22,0.00,,,0.00,VWS V14.00,2013-04-20 07:23:00,
2013-04-20 02:25:00,48.0,11.0,25.87,SW,216,4.0,5.8,22,0.00,,,0.00,VWS V14.00,2013-04-20 07:25:00,
2013-04-20 02:26:00,48.0,11.0,25.87,SSW,213,5.8,5.8,22,0.00,,,0.00,VWS V14.00,2013-04-20 07:26:00,
2013-04-20 02:28:00,49.3,12.1,25.87,SW,220,5.4,5.4,22,0.00,,,0.00,VWS V14.00,2013-04-20 07:28:00,
2013-04-20 02:30:00,48.7,11.6,25.87,SSW,204,4.0,6.3,22,0.00,,,0.00,VWS V14.00,2013-04-20 07:30:00,
2013-04-20 02:31:00,48.9,11.8,25.87,SSW,202,4.0,6.3,22,0.00,,,0.00,VWS V14.00,2013-04-20 07:31:00,
2013-04-20 02:32:00,48.7,11.6,25.87,SSW,203,4.0,6.3,22,0.00,,,0.00,VWS V14.00,2013-04-20 07:32:00,
2013-04-20 02:33:00,48.9,11.8,25.84,SSW,194,0.0,6.3,22,0.00,,,0.00,VWS V14.00,2013-04-20 07:33:00,
2013-04-20 02:35:00,48.2,11.1,25.84,SSW,194,2.2,6.3,22,0.00,,,0.00,VWS V14.00,2013-04-20 07:35:00,
2013-04-20 02:36:00,48.0,11.0,25.84,SSW,195,2.7,6.3,22,0.00,,,0.00,VWS V14.00,2013-04-20 07:36:00,
2013-04-20 02:38:00,47.8,10.9,25.84,SSW,195,2.7,6.3,22,0.00,,,0.00,VWS V14.00,2013-04-20 07:38:00,
2013-04-20 02:39:00,47.3,10.4,25.84,SSW,195,0.0,6.3,22,0.00,,,0.00,VWS V14.00,2013-04-20 07:39:00,
2013-04-20 02:41:00,47.1,10.2,25.84,SSW,195,0.0,6.3,22,0.00,,,0.00,VWS V14.00,2013-04-20 07:41:00,
2013-04-20 02:42:00,46.8,9.9,25.84,SSW,195,0.0,6.3,22,0.00,,,0.00,VWS V14.00,2013-04-20 07:42:00,
2013-04-20 02:43:00,46.4,9.6,25.84,SSW,195,0.0,0.0,22,0.00,,,0.00,VWS V14.00,2013-04-20 07:43:00,
2013-04-20 02:45:00,46.0,10.3,25.84,SSW,195,0.0,0.0,23,0.00,,,0.00,VWS V14.00,2013-04-20 07:45:00,
2013-04-20 02:46:00,45.9,10.2,25.84,SSW,195,0.0,0.0,23,0.00,,,0.00,VWS V14.00,2013-04-20 07:46:00,
2013-04-20 02:47:00,45.3,9.7,25.84,SSW,195,0.0,0.0,23,0.00,,,0.00,VWS V14.00,2013-04-20 07:47:00,
2013-04-20 02:48:00,45.3,9.7,25.84,SSW,195,0.0,0.0,23,0.00,,,0.00,VWS V14.00,2013-04-20 07:48:00,
2013-04-20 02:50:00,45.1,9.6,25.84,SSW,195,0.0,0.0,23,0.00,,,0.00,VWS V14.00,2013-04-20 07:50:00,
2013-04-20 02:51:00,45.1,9.6,25.84,SSW,195,0.0,0.0,23,0.00,,,0.00,VWS V14.00,2013-04-20 07:51:00,
2013-04-20 02:52:00,45.0,9.4,25.84,SSW,195,0.0,0.0,23,0.00,,,0.00,VWS V14.00,2013-04-20 07:52:00,
2013-04-20 02:56:00,44.6,9.1,25.84,SSW,195,0.0,0.0,23,0.00,,,0.00,VWS V14.00,2013-04-20 07:56:00,
2013-04-20 02:57:00,44.4,8.9,25.84,SSW,195,0.0,0.0,23,0.00,,,0.00,VWS V14.00,2013-04-20 07:57:00,
2013-04-20 02:59:00,44.2,8.8,25.84,SSW,195,0.0,0.0,23,0.00,,,0.00,VWS V14.00,2013-04-20 07:59:00,
2013-04-20 03:01:00,44.2,8.8,25.84,SSW,195,0.0,0.0,23,0.00,,,0.00,VWS V14.00,2013-04-20 08:01:00,
2013-04-20 03:02:00,44.2,8.8,25.84,SSW,195,0.0,0.0,23,0.00,,,0.00,VWS V14.00,2013-04-20 08:02:00,
2013-04-20 03:04:00,44.2,8.8,25.84,SSW,195,0.0,0.0,23,0.00,,,0.00,VWS V14.00,2013-04-20 08:04:00,
2013-04-20 03:07:00,44.1,8.6,25.84,SSW,195,2.2,2.2,23,0.00,,,0.00,VWS V14.00,2013-04-20 08:07:00,
2013-04-20 03:09:00,44.4,8.9,25.84,SSW,197,2.7,4.0,23,0.00,,,0.00,VWS V14.00,2013-04-20 08:09:00,
2013-04-20 03:10:00,45.7,10.0,25.84,SSW,200,4.0,4.0,23,0.00,,,0.00,VWS V14.00,2013-04-20 08:10:00,
2013-04-20 03:12:00,46.6,9.8,25.84,SSW,204,3.6,4.9,22,0.00,,,0.00,VWS V14.00,2013-04-20 08:12:00,
2013-04-20 03:13:00,46.6,9.8,25.84,SSW,204,3.6,4.9,22,0.00,,,0.00,VWS V14.00,2013-04-20 08:13:00,
2013-04-20 03:14:00,46.8,9.9,25.84,SSW,204,3.6,4.0,22,0.00,,,0.00,VWS V14.00,2013-04-20 08:14:00,
2013-04-20 03:15:00,47.5,10.6,25.84,SSW,204,4.0,4.0,22,0.00,,,0.00,VWS V14.00,2013-04-20 08:15:00,
2013-04-20 03:18:00,47.8,10.9,25.84,SSW,200,3.6,5.8,22,0.00,,,0.00,VWS V14.00,2013-04-20 08:18:00,
2013-04-20 03:19:00,47.5,10.6,25.84,SSW,200,3.1,5.8,22,0.00,,,0.00,VWS V14.00,2013-04-20 08:19:00,
2013-04-20 03:20:00,47.3,10.4,25.84,SSW,200,3.6,5.8,22,0.00,,,0.00,VWS V14.00,2013-04-20 08:20:00,
2013-04-20 03:21:00,47.3,10.4,25.84,SSW,200,3.1,5.8,22,0.00,,,0.00,VWS V14.00,2013-04-20 08:21:00,
2013-04-20 03:24:00,47.7,10.7,25.84,SSW,202,4.0,5.8,22,0.00,,,0.00,VWS V14.00,2013-04-20 08:24:00,
2013-04-20 03:25:00,47.8,10.9,25.84,SSW,202,2.7,5.8,22,0.00,,,0.00,VWS V14.00,2013-04-20 08:25:00,
2013-04-20 03:26:00,48.0,11.0,25.84,SSW,202,3.6,5.8,22,0.00,,,0.00,VWS V14.00,2013-04-20 08:26:00,
2013-04-20 03:27:00,48.2,11.1,25.84,SW,226,3.1,5.8,22,0.00,,,0.00,VWS V14.00,2013-04-20 08:27:00,
2013-04-20 03:30:00,48.4,11.3,25.84,SW,225,3.6,5.8,22,0.00,,,0.00,VWS V14.00,2013-04-20 08:30:00,
2013-04-20 03:32:00,48.6,11.5,25.84,South,189,3.6,5.8,22,0.00,,,0.00,VWS V14.00,2013-04-20 08:32:00,
2013-04-20 03:33:00,48.4,11.3,25.84,South,190,4.0,5.8,22,0.00,,,0.00,VWS V14.00,2013-04-20 08:33:00,
2013-04-20 03:35:00,47.8,10.9,25.84,South,190,0.0,5.8,22,0.00,,,0.00,VWS V14.00,2013-04-20 08:35:00,
2013-04-20 03:36:00,47.7,10.7,25.84,South,190,0.0,5.8,22,0.00,,,0.00,VWS V14.00,2013-04-20 08:36:00,
2013-04-20 03:38:00,47.3,10.4,25.84,SSW,193,2.7,5.8,22,0.00,,,0.00,VWS V14.00,2013-04-20 08:38:00,
2013-04-20 03:41:00,47.3,10.4,25.84,SSW,204,3.6,5.8,22,0.00,,,0.00,VWS V14.00,2013-04-20 08:41:00,
2013-04-20 03:42:00,46.9,10.1,25.84,SSW,206,4.9,5.8,22,0.00,,,0.00,VWS V14.00,2013-04-20 08:42:00,
2013-04-20 03:43:00,47.3,10.4,25.84,SSW,205,2.7,4.0,22,0.00,,,0.00,VWS V14.00,2013-04-20 08:43:00,
2013-04-20 03:45:00,47.7,10.7,25.84,SW,221,3.6,4.9,22,0.00,,,0.00,VWS V14.00,2013-04-20 08:45:00,
2013-04-20 03:46:00,47.3,10.4,25.84,SW,222,2.7,4.9,22,0.00,,,0.00,VWS V14.00,2013-04-20 08:46:00,
2013-04-20 03:48:00,46.8,9.9,25.84,SW,222,2.7,4.9,22,0.00,,,0.00,VWS V14.00,2013-04-20 08:48:00,
2013-04-20 03:50:00,46.4,9.6,25.84,SW,221,3.6,4.9,22,0.00,,,0.00,VWS V14.00,2013-04-20 08:50:00,
2013-04-20 03:51:00,46.2,10.5,25.84,SW,221,3.1,4.9,23,0.00,,,0.00,VWS V14.00,2013-04-20 08:51:00,
2013-04-20 03:52:00,46.0,10.3,25.84,SW,221,2.2,4.9,23,0.00,,,0.00,VWS V14.00,2013-04-20 08:52:00,
2013-04-20 03:53:00,46.0,10.3,25.84,SW,221,2.2,4.9,23,0.00,,,0.00,VWS V14.00,2013-04-20 08:53:00,
2013-04-20 03:57:00,45.5,9.9,25.84,SW,221,2.7,4.9,23,0.00,,,0.00,VWS V14.00,2013-04-20 08:57:00,
2013-04-20 03:58:00,45.5,9.9,25.84,SW,221,3.6,3.6,23,0.00,,,0.00,VWS V14.00,2013-04-20 08:58:00,
2013-04-20 03:59:00,45.5,9.9,25.84,SW,221,3.6,4.0,23,0.00,,,0.00,VWS V14.00,2013-04-20 08:59:00,
2013-04-20 04:00:00,45.5,9.9,25.84,SW,221,2.7,4.0,23,0.00,,,0.00,VWS V14.00,2013-04-20 09:00:00,
2013-04-20 04:02:00,45.9,10.2,25.84,SW,221,4.0,4.0,23,0.00,,,0.00,VWS V14.00,2013-04-20 09:02:00,
2013-04-20 04:03:00,45.5,9.9,25.84,SW,221,2.2,4.0,23,0.00,,,0.00,VWS V14.00,2013-04-20 09:03:00,
2013-04-20 04:04:00,45.5,9.9,25.84,SW,221,2.7,4.0,23,0.00,,,0.00,VWS V14.00,2013-04-20 09:04:00,
2013-04-20 04:05:00,45.7,10.0,25.81,SW,221,2.7,4.0,23,0.00,,,0.00,VWS V14.00,2013-04-20 09:05:00,
2013-04-20 04:07:00,45.9,10.2,25.81,SW,221,2.7,4.0,23,0.00,,,0.00,VWS V14.00,2013-04-20 09:07:00,
2013-04-20 04:09:00,45.5,9.9,25.81,SW,221,0.0,4.0,23,0.00,,,0.00,VWS V14.00,2013-04-20 09:09:00,
2013-04-20 04:11:00,45.9,10.2,25.81,SW,226,3.1,4.0,23,0.00,,,0.00,VWS V14.00,2013-04-20 09:11:00,
2013-04-20 04:14:00,45.9,10.2,25.81,SW,226,3.1,3.1,23,0.00,,,0.00,VWS V14.00,2013-04-20 09:14:00,
2013-04-20 04:16:00,45.5,9.9,25.81,SW,225,0.0,4.0,23,0.00,,,0.00,VWS V14.00,2013-04-20 09:16:00,
2013-04-20 04:17:00,45.5,9.9,25.81,SW,225,0.0,4.0,23,0.00,,,0.00,VWS V14.00,2013-04-20 09:17:00,
2013-04-20 04:19:00,46.0,10.3,25.81,SW,225,3.1,4.0,23,0.00,,,0.00,VWS V14.00,2013-04-20 09:19:00,
2013-04-20 04:20:00,45.9,10.2,25.81,SW,225,3.1,4.0,23,0.00,,,0.00,VWS V14.00,2013-04-20 09:20:00,
2013-04-20 04:21:00,45.5,9.9,25.81,SW,225,0.0,4.0,23,0.00,,,0.00,VWS V14.00,2013-04-20 09:21:00,
2013-04-20 04:24:00,45.3,9.7,25.81,SW,225,0.0,4.0,23,0.00,,,0.00,VWS V14.00,2013-04-20 09:24:00,
2013-04-20 04:25:00,45.1,9.6,25.81,SW,225,0.0,4.0,23,0.00,,,0.00,VWS V14.00,2013-04-20 09:25:00,
2013-04-20 04:26:00,45.1,9.6,25.81,SW,225,0.0,4.0,23,0.00,,,0.00,VWS V14.00,2013-04-20 09:26:00,
2013-04-20 04:27:00,45.1,9.6,25.81,SW,225,2.7,4.0,23,0.00,,,0.00,VWS V14.00,2013-04-20 09:27:00,
2013-04-20 04:29:00,45.1,9.6,25.81,SW,225,0.0,3.6,23,0.00,,,0.00,VWS V14.00,2013-04-20 09:29:00,
2013-04-20 04:32:00,45.0,9.4,25.81,SW,225,0.0,3.6,23,0.00,,,0.00,VWS V14.00,2013-04-20 09:32:00,
2013-04-20 04:33:00,45.0,9.4,25.81,South,184,2.7,5.4,23,0.00,,,0.00,VWS V14.00,2013-04-20 09:33:00,
2013-04-20 04:35:00,45.0,9.4,25.81,South,184,3.1,5.4,23,0.00,,,0.00,VWS V14.00,2013-04-20 09:35:00,
2013-04-20 04:38:00,44.6,9.1,25.81,South,184,0.0,5.4,23,0.00,,,0.00,VWS V14.00,2013-04-20 09:38:00,
2013-04-20 04:39:00,44.6,9.1,25.81,South,184,0.0,5.4,23,0.00,,,0.00,VWS V14.00,2013-04-20 09:39:00,
2013-04-20 04:41:00,44.4,8.9,25.81,South,184,0.0,5.4,23,0.00,,,0.00,VWS V14.00,2013-04-20 09:41:00,
2013-04-20 04:43:00,44.2,8.8,25.81,South,184,0.0,0.0,23,0.00,,,0.00,VWS V14.00,2013-04-20 09:43:00,
2013-04-20 04:44:00,44.1,8.6,25.81,South,184,0.0,0.0,23,0.00,,,0.00,VWS V14.00,2013-04-20 09:44:00,
2013-04-20 04:45:00,44.1,8.6,25.81,South,185,2.7,3.1,23,0.00,,,0.00,VWS V14.00,2013-04-20 09:45:00,
2013-04-20 04:46:00,44.1,8.6,25.81,South,185,0.0,3.1,23,0.00,,,0.00,VWS V14.00,2013-04-20 09:46:00,
2013-04-20 04:49:00,43.5,8.2,25.81,South,185,2.7,3.1,23,0.00,,,0.00,VWS V14.00,2013-04-20 09:49:00,
2013-04-20 04:50:00,43.5,8.2,25.81,South,185,0.0,3.1,23,0.00,,,0.00,VWS V14.00,2013-04-20 09:50:00,
2013-04-20 04:52:00,43.0,7.7,25.81,South,185,0.0,3.1,23,0.00,,,0.00,VWS V14.00,2013-04-20 09:52:00,
2013-04-20 04:53:00,42.8,7.6,25.81,South,184,3.1,3.1,23,0.00,,,0.00,VWS V14.00,2013-04-20 09:53:00,
2013-04-20 04:55:00,42.8,7.6,25.81,South,185,2.7,3.1,23,0.00,,,0.00,VWS V14.00,2013-04-20 09:55:00,
2013-04-20 04:57:00,43.0,7.7,25.81,South,185,0.0,4.0,23,0.00,,,0.00,VWS V14.00,2013-04-20 09:57:00,
2013-04-20 04:58:00,43.2,7.9,25.81,South,185,3.1,3.1,23,0.00,,,0.00,VWS V14.00,2013-04-20 09:58:00,
2013-04-20 05:00:00,44.1,8.6,25.81,South,187,3.1,4.0,23,0.00,,,0.00,VWS V14.00,2013-04-20 10:00:00,
2013-04-20 05:01:00,44.4,8.9,25.81,South,187,3.6,4.0,23,0.00,,,0.00,VWS V14.00,2013-04-20 10:01:00,
2013-04-20 05:02:00,44.8,9.3,25.81,SSW,197,3.1,4.0,23,0.00,,,0.00,VWS V14.00,2013-04-20 10:02:00,
2013-04-20 05:03:00,44.8,9.3,25.81,SSW,197,2.7,4.0,23,0.00,,,0.00,VWS V14.00,2013-04-20 10:03:00,
2013-04-20 05:04:00,45.3,9.7,25.81,SSW,198,3.1,4.0,23,0.00,,,0.00,VWS V14.00,2013-04-20 10:04:00,
2013-04-20 05:07:00,47.3,10.4,25.81,South,191,5.4,6.3,22,0.00,,,0.00,VWS V14.00,2013-04-20 10:07:00,
2013-04-20 05:08:00,46.9,10.1,25.81,South,188,3.1,6.3,22,0.00,,,0.00,VWS V14.00,2013-04-20 10:08:00,
2013-04-20 05:10:00,46.4,9.6,25.81,South,188,0.0,6.3,22,0.00,,,0.00,VWS V14.00,2013-04-20 10:10:00,
2013-04-20 05:12:00,45.9,10.2,25.81,South,186,4.9,6.3,23,0.00,,,0.00,VWS V14.00,2013-04-20 10:12:00,
2013-04-20 05:13:00,46.2,10.5,25.81,South,189,3.6,4.9,23,0.00,,,0.00,VWS V14.00,2013-04-20 10:13:00,
2013-04-20 05:14:00,46.2,10.5,25.81,South,189,0.0,4.9,23,0.00,,,0.00,VWS V14.00,2013-04-20 10:14:00,
2013-04-20 05:15:00,46.4,9.6,25.81,South,189,2.7,4.9,22,0.00,,,0.00,VWS V14.00,2013-04-20 10:15:00,
2013-04-20 05:18:00,45.9,10.2,25.81,South,189,2.2,4.9,23,0.00,,,0.00,VWS V14.00,2013-04-20 10:18:00,
2013-04-20 05:19:00,45.7,10.0,25.81,South,189,0.0,4.9,23,0.00,,,0.00,VWS V14.00,2013-04-20 10:19:00,
2013-04-20 05:20:00,45.5,9.9,25.81,South,189,2.7,4.9,23,0.00,,,0.00,VWS V14.00,2013-04-20 10:20:00,
2013-04-20 05:21:00,45.7,10.0,25.81,South,190,2.2,5.4,23,0.00,,,0.00,VWS V14.00,2013-04-20 10:21:00,
2013-04-20 05:23:00,45.1,9.6,25.81,South,190,0.0,5.4,23,0.00,,,0.00,VWS V14.00,2013-04-20 10:23:00,
2013-04-20 05:24:00,44.8,9.3,25.81,South,190,0.0,5.4,23,0.00,,,0.00,VWS V14.00,2013-04-20 10:24:00,
2013-04-20 05:25:00,44.6,9.1,25.81,South,190,0.0,5.4,23,0.00,,,0.00,VWS V14.00,2013-04-20 10:25:00,
2013-04-20 05:27:00,43.5,8.2,25.81,South,190,0.0,5.4,23,0.00,,,0.00,VWS V14.00,2013-04-20 10:27:00,
2013-04-20 05:29:00,43.2,7.9,25.81,South,190,0.0,3.6,23,0.00,,,0.00,VWS V14.00,2013-04-20 10:29:00,
2013-04-20 05:30:00,42.6,7.4,25.81,South,190,0.0,3.6,23,0.00,,,0.00,VWS V14.00,2013-04-20 10:30:00,
2013-04-20 05:33:00,42.4,7.3,25.81,South,190,0.0,3.6,23,0.00,,,0.00,VWS V14.00,2013-04-20 10:33:00,
2013-04-20 05:34:00,42.3,7.1,25.81,South,190,0.0,3.6,23,0.00,,,0.00,VWS V14.00,2013-04-20 10:34:00,
2013-04-20 05:35:00,42.1,7.0,25.81,South,190,0.0,3.6,23,0.00,,,0.00,VWS V14.00,2013-04-20 10:35:00,
2013-04-20 05:37:00,42.1,7.0,25.81,South,190,2.2,3.6,23,0.00,,,0.00,VWS V14.00,2013-04-20 10:37:00,
2013-04-20 05:38:00,42.3,7.1,25.81,South,190,0.0,3.6,23,0.00,,,0.00,VWS V14.00,2013-04-20 10:38:00,
2013-04-20 05:39:00,42.4,7.3,25.81,South,190,0.0,3.6,23,0.00,,,0.00,VWS V14.00,2013-04-20 10:39:00,
2013-04-20 05:40:00,42.4,7.3,25.81,South,190,0.0,3.6,23,0.00,,,0.00,VWS V14.00,2013-04-20 10:40:00,
2013-04-20 05:42:00,42.4,7.3,25.81,South,190,0.0,3.6,23,0.00,,,0.00,VWS V14.00,2013-04-20 10:42:00,
2013-04-20 05:44:00,42.3,7.1,25.81,South,190,0.0,0.0,23,0.00,,,0.00,VWS V14.00,2013-04-20 10:44:00,
2013-04-20 05:45:00,42.1,7.0,25.81,South,190,0.0,0.0,23,0.00,,,0.00,VWS V14.00,2013-04-20 10:45:00,
2013-04-20 05:47:00,41.9,7.8,25.81,South,190,2.7,3.6,24,0.00,,,0.00,VWS V14.00,2013-04-20 10:47:00,
2013-04-20 05:48:00,41.5,7.4,25.81,South,190,0.0,3.6,24,0.00,,,0.00,VWS V14.00,2013-04-20 10:48:00,
2013-04-20 05:49:00,41.2,7.1,25.78,South,190,0.0,3.6,24,0.00,,,0.00,VWS V14.00,2013-04-20 10:49:00,
2013-04-20 05:51:00,41.2,7.1,25.78,South,190,0.0,3.6,24,0.00,,,0.00,VWS V14.00,2013-04-20 10:51:00,
2013-04-20 05:53:00,41.5,7.4,25.78,South,190,2.2,3.6,24,0.00,,,0.00,VWS V14.00,2013-04-20 10:53:00,
2013-04-20 05:56:00,41.7,7.6,25.78,South,188,4.9,4.9,24,0.00,,,0.00,VWS V14.00,2013-04-20 10:56:00,
2013-04-20 05:57:00,43.0,7.7,25.78,South,190,4.9,4.9,23,0.00,,,0.00,VWS V14.00,2013-04-20 10:57:00,
2013-04-20 05:58:00,42.6,7.4,25.78,South,190,3.6,3.6,23,0.00,,,0.00,VWS V14.00,2013-04-20 10:58:00,
2013-04-20 05:59:00,43.0,7.7,25.78,South,190,2.7,4.0,23,0.00,,,0.00,VWS V14.00,2013-04-20 10:59:00,
2013-04-20 06:02:00,43.0,7.7,25.78,South,190,3.1,4.0,23,0.00,,,0.00,VWS V14.00,2013-04-20 11:02:00,
2013-04-20 06:03:00,43.0,7.7,25.78,South,190,2.7,4.0,23,0.00,,,0.00,VWS V14.00,2013-04-20 11:03:00,
2013-04-20 06:04:00,43.2,7.9,25.78,South,190,3.6,4.0,23,0.00,,,0.00,VWS V14.00,2013-04-20 11:04:00,
2013-04-20 06:05:00,43.3,8.0,25.78,South,190,0.0,4.0,23,0.00,,,0.00,VWS V14.00,2013-04-20 11:05:00,
2013-04-20 06:07:00,42.6,8.4,25.78,South,190,0.0,4.0,24,0.00,,,0.00,VWS V14.00,2013-04-20 11:07:00,
2013-04-20 06:08:00,42.3,8.1,25.78,South,190,0.0,4.0,24,0.00,,,0.00,VWS V14.00,2013-04-20 11:08:00,
2013-04-20 06:09:00,41.9,7.8,25.78,South,190,0.0,4.0,24,0.00,,,0.00,VWS V14.00,2013-04-20 11:09:00,
2013-04-20 06:11:00,40.8,6.8,25.78,South,190,0.0,4.0,24,0.00,,,0.00,VWS V14.00,2013-04-20 11:11:00,
2013-04-20 06:13:00,40.5,6.5,25.78,South,190,0.0,4.0,24,0.00,,,0.00,VWS V14.00,2013-04-20 11:13:00,
2013-04-20 06:14:00,40.1,6.2,25.78,South,190,0.0,0.0,24,0.00,,,0.00,VWS V14.00,2013-04-20 11:14:00,
2013-04-20 06:17:00,40.1,6.2,25.78,South,190,0.0,0.0,24,0.00,,,0.00,VWS V14.00,2013-04-20 11:17:00,
2013-04-20 06:19:00,39.9,6.1,25.78,South,190,0.0,0.0,24,0.00,,,0.00,VWS V14.00,2013-04-20 11:19:00,
2013-04-20 06:20:00,40.3,6.4,25.78,South,190,0.0,0.0,24,0.00,,,0.00,VWS V14.00,2013-04-20 11:20:00,
2013-04-20 06:22:00,40.8,6.8,25.78,South,190,3.6,3.6,24,0.00,,,0.00,VWS V14.00,2013-04-20 11:22:00,
2013-04-20 06:24:00,41.7,7.6,25.78,South,190,3.1,4.0,24,0.00,,,0.00,VWS V14.00,2013-04-20 11:24:00,
2013-04-20 06:25:00,41.9,7.8,25.78,South,190,3.1,4.0,24,0.00,,,0.00,VWS V14.00,2013-04-20 11:25:00,
2013-04-20 06:26:00,42.3,8.1,25.78,South,190,2.7,4.0,24,0.00,,,0.00,VWS V14.00,2013-04-20 11:26:00,
2013-04-20 06:28:00,42.6,7.4,25.78,South,190,3.1,4.0,23,0.00,,,0.00,VWS V14.00,2013-04-20 11:28:00,
2013-04-20 06:30:00,43.0,7.7,25.78,South,190,3.1,3.6,23,0.00,,,0.00,VWS V14.00,2013-04-20 11:30:00,
2013-04-20 06:31:00,43.0,7.7,25.78,South,190,3.1,3.6,23,0.00,,,0.00,VWS V14.00,2013-04-20 11:31:00,
2013-04-20 06:32:00,43.3,8.0,25.78,South,190,3.6,4.0,23,0.00,,,0.00,VWS V14.00,2013-04-20 11:32:00,
2013-04-20 06:33:00,43.5,8.2,25.78,South,190,4.0,4.0,23,0.00,,,0.00,VWS V14.00,2013-04-20 11:33:00,
2013-04-20 06:35:00,44.6,9.1,25.78,South,190,3.1,4.9,23,0.00,,,0.00,VWS V14.00,2013-04-20 11:35:00,
2013-04-20 06:36:00,44.6,9.1,25.78,South,190,4.0,4.9,23,0.00,,,0.00,VWS V14.00,2013-04-20 11:36:00,
2013-04-20 06:39:00,44.6,9.1,25.78,South,190,2.7,4.9,23,0.00,,,0.00,VWS V14.00,2013-04-20 11:39:00,
2013-04-20 06:40:00,45.0,9.4,25.78,South,190,3.6,5.4,23,0.00,,,0.00,VWS V14.00,2013-04-20 11:40:00,
2013-04-20 06:41:00,46.2,10.5,25.78,SSW,203,4.0,5.4,23,0.00,,,0.00,VWS V14.00,2013-04-20 11:41:00,
2013-04-20 06:42:00,45.7,10.0,25.78,SSW,203,2.7,5.4,23,0.00,,,0.00,VWS V14.00,2013-04-20 11:42:00,
2013-04-20 06:43:00,45.7,10.0,25.78,SSW,203,3.6,5.4,23,0.00,,,0.00,VWS V14.00,2013-04-20 11:43:00,
2013-04-20 06:44:00,46.0,10.3,25.78,SSW,203,2.7,3.6,23,0.00,,,0.00,VWS V14.00,2013-04-20 11:44:00,
2013-04-20 06:45:00,45.5,9.9,25.78,SSW,203,2.2,3.6,23,0.00,,,0.00,VWS V14.00,2013-04-20 11:45:00,
2013-04-20 06:47:00,45.3,9.7,25.78,SSW,203,4.0,4.0,23,0.00,,,0.00,VWS V14.00,2013-04-20 11:47:00,
2013-04-20 06:50:00,45.3,9.7,25.78,SSW,203,2.7,4.0,23,0.00,,,0.00,VWS V14.00,2013-04-20 11:50:00,
2013-04-20 06:52:00,45.3,9.7,25.78,SW,217,2.2,4.0,23,0.00,,,0.00,VWS V14.00,2013-04-20 11:52:00,
2013-04-20 06:53:00,45.1,9.6,25.78,SW,217,3.1,4.0,23,0.00,,,0.00,VWS V14.00,2013-04-20 11:53:00,
2013-04-20 06:55:00,45.3,9.7,25.78,SW,217,3.1,4.0,23,0.00,,,0.00,VWS V14.00,2013-04-20 11:55:00,
2013-04-20 06:56:00,45.3,9.7,25.78,SSW,205,4.0,4.0,23,0.00,,,0.00,VWS V14.00,2013-04-20 11:56:00,
2013-04-20 06:58:00,45.1,9.6,25.78,SSW,205,0.0,2.7,23,0.00,,,0.00,VWS V14.00,2013-04-20 11:58:00,
2013-04-20 06:59:00,45.1,9.6,25.78,SSW,204,2.7,3.6,23,0.00,,,0.00,VWS V14.00,2013-04-20 11:59:00,
2013-04-20 07:00:00,45.1,9.6,25.78,SSW,205,4.9,4.9,23,0.00,,,0.00,VWS V14.00,2013-04-20 12:00:00,
2013-04-20 07:01:00,45.1,9.6,25.78,SSW,204,3.6,4.9,23,0.00,,,0.00,VWS V14.00,2013-04-20 12:01:00,
2013-04-20 07:02:00,45.1,9.6,25.78,SSW,204,3.6,4.9,23,0.00,,,0.00,VWS V14.00,2013-04-20 12:02:00,
2013-04-20 07:03:00,45.5,9.9,25.78,SSW,204,2.7,4.9,23,0.00,,,0.00,VWS V14.00,2013-04-20 12:03:00,
2013-04-20 07:04:00,45.3,9.7,25.78,SSW,204,0.0,4.9,23,0.00,,,0.00,VWS V14.00,2013-04-20 12:04:00,
2013-04-20 07:06:00,45.3,9.7,25.78,SSW,204,0.0,4.9,23,0.00,,,0.00,VWS V14.00,2013-04-20 12:06:00,
2013-04-20 07:07:00,44.8,9.3,25.78,SSW,204,2.7,4.9,23,0.00,,,0.00,VWS V14.00,2013-04-20 12:07:00,
2013-04-20 07:09:00,44.6,9.1,25.78,SSW,204,0.0,4.9,23,0.00,,,0.00,VWS V14.00,2013-04-20 12:09:00,
2013-04-20 07:10:00,44.6,9.1,25.78,SSW,204,2.7,4.9,23,0.00,,,0.00,VWS V14.00,2013-04-20 12:10:00,
2013-04-20 07:11:00,44.4,8.9,25.78,SSW,204,0.0,4.9,23,0.00,,,0.00,VWS V14.00,2013-04-20 12:11:00,
2013-04-20 07:12:00,44.6,9.1,25.78,SSW,204,0.0,4.9,23,0.00,,,0.00,VWS V14.00,2013-04-20 12:12:00,
2013-04-20 07:14:00,45.0,9.4,25.78,SSW,204,2.7,3.6,23,0.00,,,0.00,VWS V14.00,2013-04-20 12:14:00,
2013-04-20 07:15:00,45.0,9.4,25.78,SSW,209,5.8,5.8,23,0.00,,,0.00,VWS V14.00,2013-04-20 12:15:00,
2013-04-20 07:16:00,45.3,9.7,25.78,SSW,203,3.6,5.8,23,0.00,,,0.00,VWS V14.00,2013-04-20 12:16:00,
2013-04-20 07:18:00,45.7,10.0,25.78,SSW,200,3.6,5.8,23,0.00,,,0.00,VWS V14.00,2013-04-20 12:18:00,
2013-04-20 07:20:00,45.9,10.2,25.78,SSW,200,3.1,5.8,23,0.00,,,0.00,VWS V14.00,2013-04-20 12:20:00,
2013-04-20 07:21:00,45.9,10.2,25.78,SSW,200,3.1,5.8,23,0.00,,,0.00,VWS V14.00,2013-04-20 12:21:00,
2013-04-20 07:24:00,46.8,9.9,25.78,SSW,200,4.9,5.8,22,0.00,,,0.00,VWS V14.00,2013-04-20 12:24:00,
2013-04-20 07:25:00,46.8,9.9,25.78,SSW,200,4.0,5.8,22,0.00,,,0.00,VWS V14.00,2013-04-20 12:25:00,
2013-04-20 07:26:00,46.4,9.6,25.78,SSW,200,4.0,5.8,22,0.00,,,0.00,VWS V14.00,2013-04-20 12:26:00,
2013-04-20 07:29:00,46.6,9.8,25.78,SSW,200,4.9,4.9,22,0.00,,,0.00,VWS V14.00,2013-04-20 12:29:00,
2013-04-20 07:31:00,47.1,10.2,25.78,SW,214,4.5,5.8,22,0.00,,,0.00,VWS V14.00,2013-04-20 12:31:00,
2013-04-20 07:32:00,47.3,10.4,25.78,SW,214,4.0,5.8,22,0.00,,,0.00,VWS V14.00,2013-04-20 12:32:00,
2013-04-20 07:33:00,47.3,10.4,25.78,SW,214,4.0,5.8,22,0.00,,,0.00,VWS V14.00,2013-04-20 12:33:00,
2013-04-20 07:36:00,47.3,10.4,25.78,SSW,207,3.1,5.8,22,0.00,,,0.00,VWS V14.00,2013-04-20 12:36:00,
2013-04-20 07:38:00,47.7,10.7,25.78,SW,218,5.4,5.8,22,0.00,,,0.00,VWS V14.00,2013-04-20 12:38:00,
2013-04-20 07:39:00,47.5,10.6,25.78,SSW,204,4.0,5.8,22,0.00,,,0.00,VWS V14.00,2013-04-20 12:39:00,
2013-04-20 07:40:00,47.5,10.6,25.78,SSW,204,3.1,5.8,22,0.00,,,0.00,VWS V14.00,2013-04-20 12:40:00,
2013-04-20 07:41:00,47.5,10.6,25.78,SSW,205,3.1,5.8,22,0.00,,,0.00,VWS V14.00,2013-04-20 12:41:00,
2013-04-20 07:42:00,47.3,10.4,25.78,SSW,205,3.6,5.8,22,0.00,,,0.00,VWS V14.00,2013-04-20 12:42:00,
2013-04-20 07:44:00,47.3,10.4,25.78,SSW,205,3.1,4.0,22,0.00,,,0.00,VWS V14.00,2013-04-20 12:44:00,
2013-04-20 07:46:00,47.3,10.4,25.78,SSW,202,3.6,4.0,22,0.00,,,0.00,VWS V14.00,2013-04-20 12:46:00,
2013-04-20 07:47:00,47.7,10.7,25.78,SW,214,4.0,5.4,22,0.00,,,0.00,VWS V14.00,2013-04-20 12:47:00,
2013-04-20 07:49:00,47.7,10.7,25.78,South,176,2.7,6.3,22,0.00,,,0.00,VWS V14.00,2013-04-20 12:49:00,
2013-04-20 07:50:00,47.7,10.7,25.78,South,176,2.7,6.3,22,0.00,,,0.00,VWS V14.00,2013-04-20 12:50:00,
2013-04-20 07:52:00,47.7,10.7,25.78,South,182,2.7,6.3,22,0.00,,,0.00,VWS V14.00,2013-04-20 12:52:00,
2013-04-20 07:54:00,48.0,11.0,25.78,SSW,192,3.1,6.3,22,0.00,,,0.00,VWS V14.00,2013-04-20 12:54:00,
2013-04-20 07:55:00,47.8,10.9,25.78,SSW,192,4.5,6.3,22,0.00,,,0.00,VWS V14.00,2013-04-20 12:55:00,
2013-04-20 07:57:00,48.2,11.1,25.78,SSW,194,4.9,6.3,22,0.00,,,0.00,VWS V14.00,2013-04-20 12:57:00,
2013-04-20 07:59:00,48.0,11.0,25.78,South,185,3.6,4.0,22,0.00,,,0.00,VWS V14.00,2013-04-20 12:59:00,
2013-04-20 08:00:00,48.0,11.0,25.78,South,185,3.1,4.0,22,0.00,,,0.00,VWS V14.00,2013-04-20 13:00:00,
2013-04-20 08:02:00,48.6,11.5,25.78,SSW,198,3.6,4.9,22,0.00,,,0.00,VWS V14.00,2013-04-20 13:02:00,
2013-04-20 08:03:00,48.6,11.5,25.81,SSW,195,4.5,5.8,22,0.00,,,0.00,VWS V14.00,2013-04-20 13:03:00,
2013-04-20 08:05:00,48.6,11.5,25.81,SSW,195,5.8,6.3,22,0.00,,,0.00,VWS V14.00,2013-04-20 13:05:00,
2013-04-20 08:06:00,48.7,11.6,25.81,SSW,200,3.6,6.3,22,0.00,,,0.00,VWS V14.00,2013-04-20 13:06:00,
2013-04-20 08:08:00,49.1,11.9,25.81,SSW,200,3.6,6.3,22,0.00,,,0.00,VWS V14.00,2013-04-20 13:08:00,
2013-04-20 08:11:00,49.6,12.4,25.81,SSW,200,0.0,6.3,22,0.00,,,0.00,VWS V14.00,2013-04-20 13:11:00,
2013-04-20 08:13:00,49.6,12.4,25.81,South,191,5.4,6.3,22,0.00,,,0.00,VWS V14.00,2013-04-20 13:13:00,
2013-04-20 08:14:00,49.8,12.5,25.81,SSW,212,4.9,6.3,22,0.00,,,0.00,VWS V14.00,2013-04-20 13:14:00,
2013-04-20 08:16:00,50.2,11.8,25.81,SSW,200,3.1,6.3,21,0.00,,,0.00,VWS V14.00,2013-04-20 13:16:00,
2013-04-20 08:17:00,50.2,11.8,25.81,SSW,200,2.7,6.3,21,0.00,,,0.00,VWS V14.00,2013-04-20 13:17:00,
2013-04-20 08:18:00,50.2,11.8,25.81,SSW,200,3.6,6.3,21,0.00,,,0.00,VWS V14.00,2013-04-20 13:18:00,
2013-04-20 08:19:00,50.2,11.8,25.78,SSW,200,2.7,6.3,21,0.00,,,0.00,VWS V14.00,2013-04-20 13:19:00,
2013-04-20 08:20:00,50.2,11.8,25.78,South,181,4.0,6.3,21,0.00,,,0.00,VWS V14.00,2013-04-20 13:20:00,
2013-04-20 08:22:00,50.2,11.8,25.78,SSW,197,4.9,6.3,21,0.00,,,0.00,VWS V14.00,2013-04-20 13:22:00,
2013-04-20 08:23:00,50.2,11.8,25.78,South,188,3.6,6.3,21,0.00,,,0.00,VWS V14.00,2013-04-20 13:23:00,
2013-04-20 08:25:00,50.4,11.9,25.78,South,175,6.3,6.3,21,0.00,,,0.00,VWS V14.00,2013-04-20 13:25:00,
2013-04-20 08:27:00,50.7,12.2,25.78,WSW,243,5.4,7.6,21,0.00,,,0.00,VWS V14.00,2013-04-20 13:27:00,
2013-04-20 08:29:00,50.9,12.4,25.78,South,183,6.3,6.3,21,0.00,,,0.00,VWS V14.00,2013-04-20 13:29:00,
2013-04-20 08:30:00,51.1,12.5,25.78,SSW,201,8.1,8.1,21,0.00,,,0.00,VWS V14.00,2013-04-20 13:30:00,
2013-04-20 08:32:00,51.3,12.7,25.78,South,173,3.6,8.1,21,0.00,,,0.00,VWS V14.00,2013-04-20 13:32:00,
2013-04-20 08:33:00,51.3,12.7,25.78,South,173,3.6,8.1,21,0.00,,,0.00,VWS V14.00,2013-04-20 13:33:00,
2013-04-20 08:36:00,51.4,12.8,25.81,SSW,192,6.3,8.1,21,0.00,,,0.00,VWS V14.00,2013-04-20 13:36:00,
2013-04-20 08:38:00,51.4,12.8,25.81,SSW,205,5.8,8.1,21,0.00,,,0.00,VWS V14.00,2013-04-20 13:38:00,
2013-04-20 08:41:00,51.8,13.1,25.81,SSE,166,8.3,9.6,21,0.00,,,0.00,VWS V14.00,2013-04-20 13:41:00,
2013-04-20 08:42:00,52.0,13.3,25.81,South,186,8.3,9.6,21,0.00,,,0.00,VWS V14.00,2013-04-20 13:42:00,
2013-04-20 08:43:00,52.0,13.3,25.81,SSW,200,7.6,8.3,21,0.00,,,0.00,VWS V14.00,2013-04-20 13:43:00,
2013-04-20 08:46:00,52.5,13.7,25.81,SSW,204,7.2,8.7,21,0.00,,,0.00,VWS V14.00,2013-04-20 13:46:00,
2013-04-20 08:48:00,52.9,14.0,25.81,SSW,194,5.8,8.7,21,0.00,,,0.00,VWS V14.00,2013-04-20 13:48:00,
2013-04-20 08:49:00,53.8,14.8,25.81,SSW,193,5.4,8.7,21,0.00,,,0.00,VWS V14.00,2013-04-20 13:49:00,
2013-04-20 08:51:00,53.2,14.3,25.81,SSW,195,0.0,8.7,21,0.00,,,0.00,VWS V14.00,2013-04-20 13:51:00,
2013-04-20 08:53:00,53.2,14.3,25.81,SSW,194,4.0,8.7,21,0.00,,,0.00,VWS V14.00,2013-04-20 13:53:00,
2013-04-20 08:54:00,53.4,14.5,25.81,South,186,4.9,8.7,21,0.00,,,0.00,VWS V14.00,2013-04-20 13:54:00,
2013-04-20 08:56:00,53.2,14.3,25.81,SSW,203,8.1,8.7,21,0.00,,,0.00,VWS V14.00,2013-04-20 13:56:00,
2013-04-20 08:58:00,53.4,14.5,25.81,South,175,8.3,8.7,21,0.00,,,0.00,VWS V14.00,2013-04-20 13:58:00,
2013-04-20 08:59:00,53.4,14.5,25.81,South,183,3.6,8.3,21,0.00,,,0.00,VWS V14.00,2013-04-20 13:59:00,
2013-04-20 09:01:00,54.0,14.9,25.81,SSW,208,7.2,8.3,21,0.00,,,0.00,VWS V14.00,2013-04-20 14:01:00,
2013-04-20 09:02:00,53.8,14.8,25.81,SSW,197,5.4,8.3,21,0.00,,,0.00,VWS V14.00,2013-04-20 14:02:00,
2013-04-20 09:03:00,54.0,14.9,25.81,South,180,5.8,8.3,21,0.00,,,0.00,VWS V14.00,2013-04-20 14:03:00,
2013-04-20 09:04:00,54.7,15.5,25.81,SSW,203,6.3,8.7,21,0.00,,,0.00,VWS V14.00,2013-04-20 14:04:00,
2013-04-20 09:05:00,54.5,15.4,25.81,SSW,197,5.8,8.7,21,0.00,,,0.00,VWS V14.00,2013-04-20 14:05:00,
2013-04-20 09:07:00,55.2,16.0,25.81,SSW,203,4.0,8.7,21,0.00,,,0.00,VWS V14.00,2013-04-20 14:07:00,
2013-04-20 09:08:00,55.2,16.0,25.81,SSW,210,6.3,8.7,21,0.00,,,0.00,VWS V14.00,2013-04-20 14:08:00,
2013-04-20 09:10:00,58.8,17.9,25.81,South,178,4.9,8.7,20,0.00,,,0.00,VWS V14.00,2013-04-20 14:10:00,
2013-04-20 09:12:00,57.6,16.8,25.81,South,181,5.4,8.7,20,0.00,,,0.00,VWS V14.00,2013-04-20 14:12:00,
2013-04-20 09:13:00,60.1,17.7,25.81,South,178,3.1,4.0,19,0.00,,,0.00,VWS V14.00,2013-04-20 14:13:00,
2013-04-20 09:16:00,57.9,17.1,25.81,South,188,3.1,8.3,20,0.00,,,0.00,VWS V14.00,2013-04-20 14:16:00,
2013-04-20 09:17:00,57.9,17.1,25.81,South,189,4.0,8.3,20,0.00,,,0.00,VWS V14.00,2013-04-20 14:17:00,
2013-04-20 09:18:00,57.9,17.1,25.81,SSW,198,5.4,8.3,20,0.00,,,0.00,VWS V14.00,2013-04-20 14:18:00,
2013-04-20 09:19:00,56.8,16.2,25.81,SSW,198,8.3,8.3,20,0.00,,,0.00,VWS V14.00,2013-04-20 14:19:00,
2013-04-20 09:21:00,56.8,16.2,25.81,SSW,204,5.4,8.3,20,0.00,,,0.00,VWS V14.00,2013-04-20 14:21:00,
2013-04-20 09:23:00,57.4,16.7,25.81,SSW,204,5.8,8.3,20,0.00,,,0.00,VWS V14.00,2013-04-20 14:23:00,
2013-04-20 09:24:00,58.5,17.6,25.81,SSW,197,4.5,8.3,20,0.00,,,0.00,VWS V14.00,2013-04-20 14:24:00,
2013-04-20 09:25:00,59.9,17.6,25.81,SSE,161,2.7,8.3,19,0.00,,,0.00,VWS V14.00,2013-04-20 14:25:00,
2013-04-20 09:26:00,60.4,18.0,25.81,South,171,6.3,8.7,19,0.00,,,0.00,VWS V14.00,2013-04-20 14:26:00,
2013-04-20 09:28:00,59.9,17.6,25.81,South,182,4.5,6.3,19,0.00,,,0.00,VWS V14.00,2013-04-20 14:28:00,
2013-04-20 09:29:00,59.2,17.0,25.81,South,184,5.8,6.3,19,0.00,,,0.00,VWS V14.00,2013-04-20 14:29:00,
2013-04-20 09:30:00,60.6,18.2,25.81,SSW,196,4.9,6.3,19,0.00,,,0.00,VWS V14.00,2013-04-20 14:30:00,
2013-04-20 09:32:00,59.0,16.8,25.81,South,169,4.0,10.1,19,0.00,,,0.00,VWS V14.00,2013-04-20 14:32:00,
2013-04-20 09:34:00,59.2,17.0,25.81,South,177,6.3,10.1,19,0.00,,,0.00,VWS V14.00,2013-04-20 14:34:00,
2013-04-20 09:35:00,59.2,17.0,25.81,South,177,6.3,10.1,19,0.00,,,0.00,VWS V14.00,2013-04-20 14:35:00,
2013-04-20 09:36:00,58.1,17.3,25.81,South,186,5.4,10.1,20,0.00,,,0.00,VWS V14.00,2013-04-20 14:36:00,
2013-04-20 09:38:00,59.2,17.0,25.81,SE,142,5.4,11.0,19,0.00,,,0.00,VWS V14.00,2013-04-20 14:38:00,
2013-04-20 09:39:00,61.9,19.2,25.81,South,182,3.1,11.0,19,0.00,,,0.00,VWS V14.00,2013-04-20 14:39:00,
2013-04-20 09:40:00,62.6,19.8,25.81,SSE,151,3.6,11.0,19,0.00,,,0.00,VWS V14.00,2013-04-20 14:40:00,
2013-04-20 09:41:00,60.1,18.9,25.81,South,174,8.7,11.0,20,0.00,,,0.00,VWS V14.00,2013-04-20 14:41:00,
2013-04-20 09:44:00,59.7,18.6,25.81,South,176,8.1,8.3,20,0.00,,,0.00,VWS V14.00,2013-04-20 14:44:00,
2013-04-20 09:45:00,59.5,18.5,25.81,SW,216,6.3,10.5,20,0.00,,,0.00,VWS V14.00,2013-04-20 14:45:00,
2013-04-20 09:46:00,58.8,17.9,25.81,SSW,203,7.6,10.5,20,0.00,,,0.00,VWS V14.00,2013-04-20 14:46:00,
2013-04-20 09:47:00,60.6,19.4,25.81,South,186,5.4,10.5,20,0.00,,,0.00,VWS V14.00,2013-04-20 14:47:00,
2013-04-20 09:49:00,60.6,19.4,25.81,SSW,197,7.6,10.5,20,0.00,,,0.00,VWS V14.00,2013-04-20 14:49:00,
2013-04-20 09:50:00,63.9,20.8,25.81,South,183,5.8,10.5,19,0.00,,,0.00,VWS V14.00,2013-04-20 14:50:00,
2013-04-20 09:51:00,63.9,20.8,25.81,SSE,163,5.4,10.5,19,0.00,,,0.00,VWS V14.00,2013-04-20 14:51:00,
2013-04-20 09:52:00,63.1,20.2,25.81,South,178,8.3,10.5,19,0.00,,,0.00,VWS V14.00,2013-04-20 14:52:00,
2013-04-20 09:53:00,62.6,19.8,25.81,SSE,162,5.8,10.5,19,0.00,,,0.00,VWS V14.00,2013-04-20 14:53:00,
2013-04-20 09:54:00,62.2,19.5,25.81,South,180,7.2,10.5,19,0.00,,,0.00,VWS V14.00,2013-04-20 14:54:00,
2013-04-20 09:56:00,66.9,22.1,25.81,South,176,4.9,10.5,18,0.00,,,0.00,VWS V14.00,2013-04-20 14:56:00,
2013-04-20 09:57:00,63.7,20.7,25.81,SSW,212,8.1,10.5,19,0.00,,,0.00,VWS V14.00,2013-04-20 14:57:00,
2013-04-20 09:58:00,62.1,19.3,25.81,SSW,197,8.1,8.7,19,0.00,,,0.00,VWS V14.00,2013-04-20 14:58:00,
2013-04-20 09:59:00,64.2,21.1,25.81,SSW,208,4.0,8.7,19,0.00,,,0.00,VWS V14.00,2013-04-20 14:59:00,
2013-04-20 10:01:00,65.8,21.2,25.81,South,190,5.4,8.7,18,0.00,,,0.00,VWS V14.00,2013-04-20 15:01:00,
2013-04-20 10:02:00,67.8,22.8,25.81,South,172,4.0,8.7,18,0.00,,,0.00,VWS V14.00,2013-04-20 15:02:00,
2013-04-20 10:03:00,68.4,23.2,25.81,East,91,4.9,8.7,18,0.00,,,0.00,VWS V14.00,2013-04-20 15:03:00,
2013-04-20 10:04:00,67.6,22.6,25.84,SSW,204,6.3,8.7,18,0.00,,,0.00,VWS V14.00,2013-04-20 15:04:00,
2013-04-20 10:06:00,66.9,22.1,25.84,South,191,4.9,8.7,18,0.00,,,0.00,VWS V14.00,2013-04-20 15:06:00,
2013-04-20 10:07:00,62.2,19.5,25.84,SSW,203,8.7,8.7,19,0.00,,,0.00,VWS V14.00,2013-04-20 15:07:00,
2013-04-20 10:09:00,63.9,20.8,25.84,SSW,196,2.7,8.7,19,0.00,,,0.00,VWS V14.00,2013-04-20 15:09:00,
2013-04-20 10:12:00,65.5,20.9,25.84,SW,216,8.1,10.5,18,0.00,,,0.00,VWS V14.00,2013-04-20 15:12:00,
2013-04-20 10:13:00,65.3,20.7,25.84,South,171,6.3,6.3,18,0.00,,,0.00,VWS V14.00,2013-04-20 15:13:00,
2013-04-20 10:14:00,63.0,20.1,25.84,SSW,202,10.1,10.1,19,0.00,,,0.00,VWS V14.00,2013-04-20 15:14:00,
2013-04-20 10:15:00,63.3,20.4,25.84,SSE,165,14.1,14.1,19,0.00,,,0.00,VWS V14.00,2013-04-20 15:15:00,
2013-04-20 10:17:00,64.0,21.0,25.84,South,172,6.3,14.1,19,0.00,,,0.00,VWS V14.00,2013-04-20 15:17:00,
2013-04-20 10:19:00,63.1,20.2,25.84,South,174,4.9,14.1,19,0.00,,,0.00,VWS V14.00,2013-04-20 15:19:00,
2013-04-20 10:20:00,62.6,19.8,25.84,SW,218,8.7,14.1,19,0.00,,,0.00,VWS V14.00,2013-04-20 15:20:00,
2013-04-20 10:23:00,62.8,19.9,25.84,SSW,197,8.3,14.1,19,0.00,,,0.00,VWS V14.00,2013-04-20 15:23:00,
2013-04-20 10:24:00,66.9,22.1,25.84,South,180,2.2,14.1,18,0.00,,,0.00,VWS V14.00,2013-04-20 15:24:00,
2013-04-20 10:25:00,69.3,24.0,25.84,SSW,195,2.2,14.1,18,0.00,,,0.00,VWS V14.00,2013-04-20 15:25:00,
2013-04-20 10:26:00,70.5,23.6,25.84,South,182,8.7,14.1,17,0.00,,,0.00,VWS V14.00,2013-04-20 15:26:00,
2013-04-20 10:29:00,63.9,20.8,25.84,SSW,210,8.7,8.7,19,0.00,,,0.00,VWS V14.00,2013-04-20 15:29:00,
2013-04-20 10:30:00,65.7,21.0,25.84,SSE,154,6.3,10.5,18,0.00,,,0.00,VWS V14.00,2013-04-20 15:30:00,
2013-04-20 10:31:00,67.1,22.2,25.84,South,178,5.4,10.5,18,0.00,,,0.00,VWS V14.00,2013-04-20 15:31:00,
2013-04-20 10:34:00,68.9,23.7,25.87,South,175,6.3,10.5,18,0.00,,,0.00,VWS V14.00,2013-04-20 15:34:00,
2013-04-20 10:36:00,70.5,23.6,25.87,SSE,154,7.6,10.5,17,0.00,,,0.00,VWS V14.00,2013-04-20 15:36:00,
2013-04-20 10:37:00,69.8,23.1,25.87,SSE,160,5.4,10.5,17,0.00,,,0.00,VWS V14.00,2013-04-20 15:37:00,
2013-04-20 10:38:00,65.1,20.6,25.87,South,190,10.5,10.5,18,0.00,,,0.00,VWS V14.00,2013-04-20 15:38:00,
2013-04-20 10:39:00,64.6,20.1,25.87,SSE,165,8.7,12.8,18,0.00,,,0.00,VWS V14.00,2013-04-20 15:39:00,
2013-04-20 10:41:00,64.2,21.1,25.87,SSW,192,12.8,13.6,19,0.00,,,0.00,VWS V14.00,2013-04-20 15:41:00,
2013-04-20 10:42:00,63.3,20.4,25.87,SSW,201,7.2,13.6,19,0.00,,,0.00,VWS V14.00,2013-04-20 15:42:00,
2013-04-20 10:43:00,65.1,20.6,25.87,SSW,192,7.2,8.7,18,0.00,,,0.00,VWS V14.00,2013-04-20 15:43:00,
2013-04-20 10:46:00,64.0,21.0,25.87,South,183,6.3,12.8,19,0.00,,,0.00,VWS V14.00,2013-04-20 15:46:00,
2013-04-20 10:47:00,65.5,20.9,25.87,SSE,163,8.7,12.8,18,0.00,,,0.00,VWS V14.00,2013-04-20 15:47:00,
2013-04-20 10:48:00,65.3,20.7,25.87,South,188,6.3,12.8,18,0.00,,,0.00,VWS V14.00,2013-04-20 15:48:00,
2013-04-20 10:49:00,66.0,21.3,25.87,South,190,5.4,12.8,18,0.00,,,0.00,VWS V14.00,2013-04-20 15:49:00,
2013-04-20 10:52:00,63.0,20.1,25.87,SSE,162,12.3,17.4,19,0.00,,,0.00,VWS V14.00,2013-04-20 15:52:00,
2013-04-20 10:53:00,66.6,21.8,25.87,SSW,213,3.6,17.4,18,0.00,,,0.00,VWS V14.00,2013-04-20 15:53:00,
2013-04-20 10:54:00,67.3,22.4,25.87,East,83,8.1,17.4,18,0.00,,,0.00,VWS V14.00,2013-04-20 15:54:00,
2013-04-20 10:55:00,67.8,22.8,25.87,South,180,5.4,17.4,18,0.00,,,0.00,VWS V14.00,2013-04-20 15:55:00,
2013-04-20 10:57:00,69.4,24.1,25.87,South,184,5.4,17.4,18,0.00,,,0.00,VWS V14.00,2013-04-20 15:57:00,
2013-04-20 10:59:00,69.3,24.0,25.87,SSW,194,4.0,7.6,18,0.00,,,0.00,VWS V14.00,2013-04-20 15:59:00,
2013-04-20 11:00:00,69.3,24.0,25.87,South,176,4.0,7.6,18,0.00,,,0.00,VWS V14.00,2013-04-20 16:00:00,
2013-04-20 11:01:00,69.3,24.0,25.87,South,178,5.4,7.6,18,0.00,,,0.00,VWS V14.00,2013-04-20 16:01:00,
2013-04-20 11:03:00,71.8,24.7,25.87,SSW,192,3.1,8.3,17,0.00,,,0.00,VWS V14.00,2013-04-20 16:03:00,
2013-04-20 11:04:00,69.6,24.3,25.87,SSE,164,7.6,8.3,18,0.00,,,0.00,VWS V14.00,2013-04-20 16:04:00,
2013-04-20 11:05:00,69.3,24.0,25.87,SSW,193,5.8,8.3,18,0.00,,,0.00,VWS V14.00,2013-04-20 16:05:00,
2013-04-20 11:06:00,69.3,24.0,25.87,SW,223,8.1,8.3,18,0.00,,,0.00,VWS V14.00,2013-04-20 16:06:00,
2013-04-20 11:08:00,66.2,21.5,25.87,SSW,195,8.7,11.9,18,0.00,,,0.00,VWS V14.00,2013-04-20 16:08:00,
2013-04-20 11:09:00,66.7,21.9,25.87,SSW,204,8.7,12.8,18,0.00,,,0.00,VWS V14.00,2013-04-20 16:09:00,
2013-04-20 11:10:00,68.2,23.1,25.87,South,178,8.1,12.8,18,0.00,,,0.00,VWS V14.00,2013-04-20 16:10:00,
2013-04-20 11:11:00,69.8,23.1,25.87,SE,142,4.0,12.8,17,0.00,,,0.00,VWS V14.00,2013-04-20 16:11:00,
2013-04-20 11:13:00,68.2,23.1,25.87,South,190,6.3,12.8,18,0.00,,,0.00,VWS V14.00,2013-04-20 16:13:00,
2013-04-20 11:15:00,67.3,22.4,25.87,SSW,205,10.1,11.4,18,0.00,,,0.00,VWS V14.00,2013-04-20 16:15:00,
2013-04-20 11:16:00,66.2,21.5,25.87,South,191,11.0,12.8,18,0.00,,,0.00,VWS V14.00,2013-04-20 16:16:00,
2013-04-20 11:17:00,66.9,22.1,25.87,South,179,10.1,12.8,18,0.00,,,0.00,VWS V14.00,2013-04-20 16:17:00,
2013-04-20 11:18:00,68.2,23.1,25.87,SSE,159,5.8,12.8,18,0.00,,,0.00,VWS V14.00,2013-04-20 16:18:00,
2013-04-20 11:19:00,69.8,23.1,25.90,South,171,4.9,12.8,17,0.00,,,0.00,VWS V14.00,2013-04-20 16:19:00,
2013-04-20 11:20:00,70.5,23.6,25.90,SSW,198,4.9,12.8,17,0.00,,,0.00,VWS V14.00,2013-04-20 16:20:00,
2013-04-20 11:21:00,71.4,24.4,25.90,SSE,168,4.9,12.8,17,0.00,,,0.00,VWS V14.00,2013-04-20 16:21:00,
2013-04-20 11:23:00,71.6,24.5,25.90,SSW,199,3.1,12.8,17,0.00,,,0.00,VWS V14.00,2013-04-20 16:23:00,
2013-04-20 11:25:00,68.5,23.4,25.90,SSW,195,11.0,12.8,18,0.00,,,0.00,VWS V14.00,2013-04-20 16:25:00,
2013-04-20 11:26:00,69.4,24.1,25.90,SSE,167,8.7,12.8,18,0.00,,,0.00,VWS V14.00,2013-04-20 16:26:00,
2013-04-20 11:27:00,70.3,23.5,25.90,South,187,7.6,12.8,17,0.00,,,0.00,VWS V14.00,2013-04-20 16:27:00,
2013-04-20 11:28:00,71.2,24.2,25.90,South,175,6.3,7.6,17,0.00,,,0.00,VWS V14.00,2013-04-20 16:28:00,
2013-04-20 11:32:00,70.7,23.8,25.90,South,174,7.2,10.5,17,0.00,,,0.00,VWS V14.00,2013-04-20 16:32:00,
2013-04-20 11:33:00,69.8,23.1,25.90,SSW,196,13.2,13.2,17,0.00,,,0.00,VWS V14.00,2013-04-20 16:33:00,
2013-04-20 11:35:00,66.6,21.8,25.90,South,184,13.2,17.4,18,0.00,,,0.00,VWS V14.00,2013-04-20 16:35:00,
2013-04-20 11:37:00,68.2,23.1,25.90,SSW,192,11.0,17.4,18,0.00,,,0.00,VWS V14.00,2013-04-20 16:37:00,
2013-04-20 11:39:00,68.0,23.0,25.90,South,180,8.7,17.4,18,0.00,,,0.00,VWS V14.00,2013-04-20 16:39:00,
2013-04-20 11:40:00,69.8,23.1,25.90,South,189,6.3,17.4,17,0.00,,,0.00,VWS V14.00,2013-04-20 16:40:00,
2013-04-20 11:43:00,68.0,23.0,25.90,South,181,15.0,17.4,18,0.00,,,0.00,VWS V14.00,2013-04-20 16:43:00,
2013-04-20 11:44:00,68.0,23.0,25.90,SSW,192,9.6,15.0,18,0.00,,,0.00,VWS V14.00,2013-04-20 16:44:00,
2013-04-20 11:46:00,68.0,23.0,25.90,South,188,11.0,15.0,18,0.00,,,0.00,VWS V14.00,2013-04-20 16:46:00,
2013-04-20 11:48:00,69.4,24.1,25.90,SSE,166,3.6,15.0,18,0.00,,,0.00,VWS V14.00,2013-04-20 16:48:00,
2013-04-20 11:49:00,71.2,24.2,25.90,SSE,162,8.3,15.0,17,0.00,,,0.00,VWS V14.00,2013-04-20 16:49:00,
2013-04-20 11:50:00,72.0,24.8,25.90,SSW,197,8.1,15.0,17,0.00,,,0.00,VWS V14.00,2013-04-20 16:50:00,
2013-04-20 11:51:00,71.2,24.2,25.90,South,177,4.0,15.0,17,0.00,,,0.00,VWS V14.00,2013-04-20 16:51:00,
2013-04-20 11:53:00,72.5,25.2,25.90,SSE,168,5.8,15.0,17,0.00,,,0.00,VWS V14.00,2013-04-20 16:53:00,
2013-04-20 11:54:00,72.9,25.5,25.90,SE,146,5.4,15.0,17,0.00,,,0.00,VWS V14.00,2013-04-20 16:54:00,
2013-04-20 11:56:00,69.8,23.1,25.90,South,180,11.4,15.0,17,0.00,,,0.00,VWS V14.00,2013-04-20 16:56:00,
2013-04-20 11:57:00,68.2,23.1,25.90,South,183,8.7,15.0,18,0.00,,,0.00,VWS V14.00,2013-04-20 16:57:00,
2013-04-20 11:58:00,71.1,24.1,25.90,SSW,203,7.6,10.1,17,0.00,,,0.00,VWS V14.00,2013-04-20 16:58:00,
2013-04-20 11:59:00,69.3,24.0,25.90,SSE,159,7.6,10.1,18,0.00,,,0.00,VWS V14.00,2013-04-20 16:59:00,
2013-04-20 12:01:00,72.9,25.5,25.90,SSE,158,5.4,10.1,17,0.00,,,0.00,VWS V14.00,2013-04-20 17:01:00,
2013-04-20 12:02:00,73.8,24.8,25.90,South,185,4.0,10.1,16,0.00,,,0.00,VWS V14.00,2013-04-20 17:02:00,
2013-04-20 12:04:00,73.0,25.7,25.93,South,187,8.1,10.1,17,0.00,,,0.00,VWS V14.00,2013-04-20 17:04:00,
2013-04-20 12:06:00,72.7,25.4,25.93,South,177,11.0,11.0,17,0.00,,,0.00,VWS V14.00,2013-04-20 17:06:00,
2013-04-20 12:08:00,71.8,24.7,25.93,SSE,166,8.1,11.0,17,0.00,,,0.00,VWS V14.00,2013-04-20 17:08:00,
2013-04-20 12:09:00,73.0,25.7,25.93,SSE,163,5.4,11.0,17,0.00,,,0.00,VWS V14.00,2013-04-20 17:09:00,
2013-04-20 12:10:00,73.0,25.7,25.93,South,183,8.7,11.0,17,0.00,,,0.00,VWS V14.00,2013-04-20 17:10:00,
2013-04-20 12:11:00,73.4,24.5,25.93,South,179,2.7,11.0,16,0.00,,,0.00,VWS V14.00,2013-04-20 17:11:00,
2013-04-20 12:12:00,74.1,25.1,25.93,South,180,6.7,11.0,16,0.00,,,0.00,VWS V14.00,2013-04-20 17:12:00,
2013-04-20 12:13:00,73.2,25.8,25.93,SSW,200,5.4,11.0,17,0.00,,,0.00,VWS V14.00,2013-04-20 17:13:00,
2013-04-20 12:14:00,72.1,25.0,25.93,South,189,6.7,9.6,17,0.00,,,0.00,VWS V14.00,2013-04-20 17:14:00,
2013-04-20 12:15:00,73.4,24.5,25.93,South,181,10.1,11.9,16,0.00,,,0.00,VWS V14.00,2013-04-20 17:15:00,
2013-04-20 12:17:00,75.4,26.1,25.93,ESE,116,3.1,11.9,16,0.00,,,0.00,VWS V14.00,2013-04-20 17:17:00,
2013-04-20 12:18:00,74.1,25.1,25.93,SSW,197,8.1,11.9,16,0.00,,,0.00,VWS V14.00,2013-04-20 17:18:00,
2013-04-20 12:20:00,74.1,25.1,25.93,South,179,7.6,11.9,16,0.00,,,0.00,VWS V14.00,2013-04-20 17:20:00,
2013-04-20 12:22:00,72.7,25.4,25.93,SSW,199,7.6,11.9,17,0.00,,,0.00,VWS V14.00,2013-04-20 17:22:00,
2013-04-20 12:23:00,71.8,24.7,25.93,SSW,194,8.3,13.2,17,0.00,,,0.00,VWS V14.00,2013-04-20 17:23:00,
2013-04-20 12:26:00,72.3,25.1,25.93,South,189,8.1,13.2,17,0.00,,,0.00,VWS V14.00,2013-04-20 17:26:00,
2013-04-20 12:27:00,70.3,23.5,25.93,SSW,195,6.3,13.2,17,0.00,,,0.00,VWS V14.00,2013-04-20 17:27:00,
2013-04-20 12:29:00,72.3,25.1,25.93,SW,223,12.3,12.3,17,0.00,,,0.00,VWS V14.00,2013-04-20 17:29:00,
2013-04-20 12:30:00,73.9,25.0,25.93,South,171,3.6,12.3,16,0.00,,,0.00,VWS V14.00,2013-04-20 17:30:00,
2013-04-20 12:32:00,74.1,25.1,25.93,South,189,8.1,12.3,16,0.00,,,0.00,VWS V14.00,2013-04-20 17:32:00,
2013-04-20 12:33:00,74.8,25.7,25.93,SSW,201,7.6,12.3,16,0.00,,,0.00,VWS V14.00,2013-04-20 17:33:00,
2013-04-20 12:35:00,71.8,24.7,25.93,SSE,167,10.5,12.3,17,0.00,,,0.00,VWS V14.00,2013-04-20 17:35:00,
2013-04-20 12:36:00,71.8,24.7,25.93,South,172,14.5,14.5,17,0.00,,,0.00,VWS V14.00,2013-04-20 17:36:00,
2013-04-20 12:37:00,70.7,23.8,25.93,South,187,6.3,14.5,17,0.00,,,0.00,VWS V14.00,2013-04-20 17:37:00,
2013-04-20 12:38:00,70.5,23.6,25.93,SSW,212,4.0,14.5,17,0.00,,,0.00,VWS V14.00,2013-04-20 17:38:00,
2013-04-20 12:39:00,70.3,23.5,25.93,SSW,203,8.1,14.5,17,0.00,,,0.00,VWS V14.00,2013-04-20 17:39:00,
2013-04-20 12:41:00,70.3,23.5,25.93,South,187,7.6,14.5,17,0.00,,,0.00,VWS V14.00,2013-04-20 17:41:00,
2013-04-20 12:43:00,74.8,25.7,25.93,SSE,165,6.3,6.3,16,0.00,,,0.00,VWS V14.00,2013-04-20 17:43:00,
2013-04-20 12:44:00,74.1,25.1,25.93,SSW,192,5.4,8.3,16,0.00,,,0.00,VWS V14.00,2013-04-20 17:44:00,
2013-04-20 12:45:00,73.8,24.8,25.93,South,179,8.7,8.7,16,0.00,,,0.00,VWS V14.00,2013-04-20 17:45:00,
2013-04-20 12:46:00,74.1,25.1,25.93,SSW,195,5.4,8.7,16,0.00,,,0.00,VWS V14.00,2013-04-20 17:46:00,
2013-04-20 12:48:00,70.9,23.9,25.93,SSW,200,13.2,13.2,17,0.00,,,0.00,VWS V14.00,2013-04-20 17:48:00,
2013-04-20 12:49:00,69.3,24.0,25.93,SSE,166,12.3,13.2,18,0.00,,,0.00,VWS V14.00,2013-04-20 17:49:00,
2013-04-20 12:50:00,69.3,24.0,25.93,SSE,166,12.3,13.2,18,0.00,,,0.00,VWS V14.00,2013-04-20 17:50:00,
2013-04-20 12:52:00,69.6,24.3,25.93,SSW,198,10.5,13.6,18,0.00,,,0.00,VWS V14.00,2013-04-20 17:52:00,
2013-04-20 12:53:00,69.6,24.3,25.93,South,180,11.0,13.6,18,0.00,,,0.00,VWS V14.00,2013-04-20 17:53:00,
2013-04-20 12:55:00,71.8,24.7,25.93,South,182,5.4,13.6,17,0.00,,,0.00,VWS V14.00,2013-04-20 17:55:00,
2013-04-20 12:57:00,73.2,25.8,25.93,SSW,200,8.3,13.6,17,0.00,,,0.00,VWS V14.00,2013-04-20 17:57:00,
2013-04-20 12:58:00,72.5,25.2,25.93,South,191,8.1,13.6,17,0.00,,,0.00,VWS V14.00,2013-04-20 17:58:00,
2013-04-20 12:59:00,72.9,25.5,25.93,SSW,194,11.9,11.9,17,0.00,,,0.00,VWS V14.00,2013-04-20 17:59:00,
2013-04-20 13:02:00,70.7,23.8,25.93,South,189,8.1,13.2,17,0.00,,,0.00,VWS V14.00,2013-04-20 18:02:00,
2013-04-20 13:03:00,70.7,23.8,25.93,South,189,8.1,13.2,17,0.00,,,0.00,VWS V14.00,2013-04-20 18:03:00,
2013-04-20 13:04:00,71.2,24.2,25.93,SSE,164,8.3,13.2,17,0.00,,,0.00,VWS V14.00,2013-04-20 18:04:00,
2013-04-20 13:05:00,70.5,23.6,25.93,SSW,195,5.8,13.2,17,0.00,,,0.00,VWS V14.00,2013-04-20 18:05:00,
2013-04-20 13:08:00,70.5,23.6,25.93,South,171,8.3,13.2,17,0.00,,,0.00,VWS V14.00,2013-04-20 18:08:00,
2013-04-20 13:09:00,72.3,25.1,25.93,SSE,167,5.8,13.2,17,0.00,,,0.00,VWS V14.00,2013-04-20 18:09:00,
2013-04-20 13:11:00,72.7,25.4,25.93,South,181,6.3,13.2,17,0.00,,,0.00,VWS V14.00,2013-04-20 18:11:00,
2013-04-20 13:13:00,72.0,24.8,25.93,South,180,6.3,6.3,17,0.00,,,0.00,VWS V14.00,2013-04-20 18:13:00,
2013-04-20 13:14:00,71.6,24.5,25.93,South,184,10.1,10.1,17,0.00,,,0.00,VWS V14.00,2013-04-20 18:14:00,
2013-04-20 13:15:00,70.0,23.2,25.93,South,178,5.4,10.1,17,0.00,,,0.00,VWS V14.00,2013-04-20 18:15:00,
2013-04-20 13:16:00,70.0,23.2,25.93,South,181,4.9,10.1,17,0.00,,,0.00,VWS V14.00,2013-04-20 18:16:00,
2013-04-20 13:19:00,70.9,23.9,25.93,SSE,162,3.1,10.1,17,0.00,,,0.00,VWS V14.00,2013-04-20 18:19:00,
2013-04-20 13:20:00,71.2,24.2,25.93,South,172,7.2,10.1,17,0.00,,,0.00,VWS V14.00,2013-04-20 18:20:00,
2013-04-20 13:22:00,70.7,23.8,25.93,South,177,5.4,10.1,17,0.00,,,0.00,VWS V14.00,2013-04-20 18:22:00,
2013-04-20 13:25:00,70.0,23.2,25.93,SSE,162,12.8,13.2,17,0.00,,,0.00,VWS V14.00,2013-04-20 18:25:00,
2013-04-20 13:26:00,69.6,24.3,25.93,South,184,10.5,13.2,18,0.00,,,0.00,VWS V14.00,2013-04-20 18:26:00,
2013-04-20 13:27:00,70.2,23.4,25.93,SSE,163,4.0,13.2,17,0.00,,,0.00,VWS V14.00,2013-04-20 18:27:00,
2013-04-20 13:30:00,71.6,24.5,25.93,SW,214,5.8,13.2,17,0.00,,,0.00,VWS V14.00,2013-04-20 18:30:00,
2013-04-20 13:31:00,72.5,25.2,25.93,SSW,199,4.9,13.2,17,0.00,,,0.00,VWS V14.00,2013-04-20 18:31:00,
2013-04-20 13:33:00,73.4,24.5,25.93,SSW,204,0.0,13.2,16,0.00,,,0.00,VWS V14.00,2013-04-20 18:33:00,
2013-04-20 13:36:00,72.3,25.1,25.93,SSE,167,6.3,13.2,17,0.00,,,0.00,VWS V14.00,2013-04-20 18:36:00,
2013-04-20 13:37:00,74.5,25.4,25.93,South,184,7.2,13.2,16,0.00,,,0.00,VWS V14.00,2013-04-20 18:37:00,
2013-04-20 13:38:00,73.6,24.7,25.93,South,185,11.4,13.2,16,0.00,,,0.00,VWS V14.00,2013-04-20 18:38:00,
2013-04-20 13:39:00,73.6,24.7,25.93,South,187,10.1,13.2,16,0.00,,,0.00,VWS V14.00,2013-04-20 18:39:00,
2013-04-20 13:42:00,72.1,25.0,25.93,SSW,192,8.7,13.2,17,0.00,,,0.00,VWS V14.00,2013-04-20 18:42:00,
2013-04-20 13:43:00,72.9,25.5,25.93,South,188,12.3,12.3,17,0.00,,,0.00,VWS V14.00,2013-04-20 18:43:00,
2013-04-20 13:44:00,72.9,25.5,25.93,SSW,192,10.5,12.3,17,0.00,,,0.00,VWS V14.00,2013-04-20 18:44:00,
2013-04-20 13:45:00,71.8,24.7,25.93,South,175,11.0,12.8,17,0.00,,,0.00,VWS V14.00,2013-04-20 18:45:00,
2013-04-20 13:47:00,72.9,25.5,25.93,SSW,211,5.8,12.8,17,0.00,,,0.00,VWS V14.00,2013-04-20 18:47:00,
2013-04-20 13:49:00,71.8,24.7,25.93,SSW,195,8.3,12.8,17,0.00,,,0.00,VWS V14.00,2013-04-20 18:49:00,
2013-04-20 13:50:00,72.9,25.5,25.93,SSE,157,4.0,12.8,17,0.00,,,0.00,VWS V14.00,2013-04-20 18:50:00,
2013-04-20 13:51:00,71.4,24.4,25.93,SSE,158,10.5,12.8,17,0.00,,,0.00,VWS V14.00,2013-04-20 18:51:00,
2013-04-20 13:52:00,71.4,24.4,25.93,South,176,11.4,12.8,17,0.00,,,0.00,VWS V14.00,2013-04-20 18:52:00,
2013-04-20 13:53:00,71.4,24.4,25.93,SSE,156,5.8,12.8,17,0.00,,,0.00,VWS V14.00,2013-04-20 18:53:00,
2013-04-20 13:54:00,70.2,23.4,25.93,South,186,10.1,12.8,17,0.00,,,0.00,VWS V14.00,2013-04-20 18:54:00,
2013-04-20 13:55:00,69.6,24.3,25.93,SSW,211,5.8,12.8,18,0.00,,,0.00,VWS V14.00,2013-04-20 18:55:00,
2013-04-20 13:57:00,70.5,23.6,25.93,SSE,161,4.9,12.8,17,0.00,,,0.00,VWS V14.00,2013-04-20 18:57:00,
2013-04-20 13:58:00,70.9,23.9,25.93,SSE,165,8.7,12.8,17,0.00,,,0.00,VWS V14.00,2013-04-20 18:58:00,
2013-04-20 13:59:00,71.4,24.4,25.93,South,180,10.5,10.5,17,0.00,,,0.00,VWS V14.00,2013-04-20 18:59:00,
2013-04-20 14:00:00,71.1,24.1,25.93,South,179,8.1,11.0,17,0.00,,,0.00,VWS V14.00,2013-04-20 19:00:00,
2013-04-20 14:02:00,72.1,25.0,25.93,SE,133,3.1,11.0,17,0.00,,,0.00,VWS V14.00,2013-04-20 19:02:00,
2013-04-20 14:03:00,72.1,25.0,25.93,SE,142,3.6,11.0,17,0.00,,,0.00,VWS V14.00,2013-04-20 19:03:00,
2013-04-20 14:05:00,72.3,25.1,25.93,South,187,6.7,11.0,17,0.00,,,0.00,VWS V14.00,2013-04-20 19:05:00,
2013-04-20 14:08:00,73.8,24.8,25.93,South,189,13.2,13.2,16,0.00,,,0.00,VWS V14.00,2013-04-20 19:08:00,
2013-04-20 14:10:00,73.0,25.7,25.93,South,175,5.4,13.2,17,0.00,,,0.00,VWS V14.00,2013-04-20 19:10:00,
2013-04-20 14:11:00,73.4,24.5,25.93,SSE,164,8.1,13.2,16,0.00,,,0.00,VWS V14.00,2013-04-20 19:11:00,
2013-04-20 14:13:00,73.8,24.8,25.93,SSE,167,4.9,13.2,16,0.00,,,0.00,VWS V14.00,2013-04-20 19:13:00,
2013-04-20 14:15:00,72.9,25.5,25.93,SSW,204,4.0,11.4,17,0.00,,,0.00,VWS V14.00,2013-04-20 19:15:00,
2013-04-20 14:16:00,73.6,24.7,25.93,SSE,147,8.1,11.4,16,0.00,,,0.00,VWS V14.00,2013-04-20 19:16:00,
2013-04-20 14:17:00,74.5,25.4,25.93,SW,215,5.4,11.4,16,0.00,,,0.00,VWS V14.00,2013-04-20 19:17:00,
2013-04-20 14:19:00,75.2,26.0,25.93,South,190,7.6,11.4,16,0.00,,,0.00,VWS V14.00,2013-04-20 19:19:00,
2013-04-20 14:20:00,75.2,26.0,25.93,SSE,156,4.9,11.4,16,0.00,,,0.00,VWS V14.00,2013-04-20 19:20:00,
2013-04-20 14:21:00,74.3,25.2,25.93,South,175,5.8,11.4,16,0.00,,,0.00,VWS V14.00,2013-04-20 19:21:00,
2013-04-20 14:23:00,75.6,26.3,25.93,ESE,102,12.3,12.3,16,0.00,,,0.00,VWS V14.00,2013-04-20 19:23:00,
2013-04-20 14:24:00,74.3,25.2,25.93,SSE,166,9.2,12.3,16,0.00,,,0.00,VWS V14.00,2013-04-20 19:24:00,
2013-04-20 14:25:00,74.1,25.1,25.93,South,179,5.4,12.3,16,0.00,,,0.00,VWS V14.00,2013-04-20 19:25:00,
2013-04-20 14:26:00,75.0,25.8,25.93,South,176,3.1,12.3,16,0.00,,,0.00,VWS V14.00,2013-04-20 19:26:00,
2013-04-20 14:27:00,75.4,26.1,25.93,South,176,4.0,12.3,16,0.00,,,0.00,VWS V14.00,2013-04-20 19:27:00,
2013-04-20 14:29:00,76.5,27.0,25.93,SSW,192,8.3,8.3,16,0.00,,,0.00,VWS V14.00,2013-04-20 19:29:00,
2013-04-20 14:31:00,74.7,25.5,25.93,South,179,13.2,13.2,16,0.00,,,0.00,VWS V14.00,2013-04-20 19:31:00,
2013-04-20 14:32:00,75.2,26.0,25.93,South,179,6.3,13.2,16,0.00,,,0.00,VWS V14.00,2013-04-20 19:32:00,
2013-04-20 14:33:00,75.9,26.5,25.93,South,191,4.0,13.2,16,0.00,,,0.00,VWS V14.00,2013-04-20 19:33:00,
2013-04-20 14:34:00,74.7,25.5,25.93,South,177,8.7,13.2,16,0.00,,,0.00,VWS V14.00,2013-04-20 19:34:00,
2013-04-20 14:35:00,76.1,26.7,25.93,SSE,160,2.7,13.2,16,0.00,,,0.00,VWS V14.00,2013-04-20 19:35:00,
2013-04-20 14:37:00,77.2,27.6,25.93,SE,124,3.1,13.2,16,0.00,,,0.00,VWS V14.00,2013-04-20 19:37:00,
2013-04-20 14:38:00,75.2,26.0,25.93,South,182,13.2,13.2,16,0.00,,,0.00,VWS V14.00,2013-04-20 19:38:00,
2013-04-20 14:39:00,76.5,27.0,25.93,SSE,163,3.6,13.2,16,0.00,,,0.00,VWS V14.00,2013-04-20 19:39:00,
2013-04-20 14:40:00,76.8,27.3,25.93,SSW,209,5.8,13.2,16,0.00,,,0.00,VWS V14.00,2013-04-20 19:40:00,
2013-04-20 14:42:00,75.0,25.8,25.93,South,187,7.6,13.2,16,0.00,,,0.00,VWS V14.00,2013-04-20 19:42:00,
2013-04-20 14:45:00,77.2,27.6,25.93,South,187,4.0,5.4,16,0.00,,,0.00,VWS V14.00,2013-04-20 19:45:00,
2013-04-20 14:46:00,76.1,26.7,25.93,SE,138,3.6,5.4,16,0.00,,,0.00,VWS V14.00,2013-04-20 19:46:00,
2013-04-20 14:49:00,76.1,26.7,25.93,SSW,207,14.5,14.5,16,0.00,,,0.00,VWS V14.00,2013-04-20 19:49:00,
2013-04-20 14:50:00,74.7,25.5,25.93,SSE,166,13.2,14.5,16,0.00,,,0.00,VWS V14.00,2013-04-20 19:50:00,
2013-04-20 14:52:00,74.5,25.4,25.93,SSE,159,10.1,15.0,16,0.00,,,0.00,VWS V14.00,2013-04-20 19:52:00,
2013-04-20 14:54:00,73.9,25.0,25.93,South,190,10.1,15.0,16,0.00,,,0.00,VWS V14.00,2013-04-20 19:54:00,
2013-04-20 14:56:00,72.9,25.5,25.93,SSW,213,5.8,15.0,17,0.00,,,0.00,VWS V14.00,2013-04-20 19:56:00,
2013-04-20 14:57:00,72.9,25.5,25.93,SSW,194,5.8,15.0,17,0.00,,,0.00,VWS V14.00,2013-04-20 19:57:00,
2013-04-20 14:58:00,73.6,24.7,25.93,SSW,198,5.8,5.8,16,0.00,,,0.00,VWS V14.00,2013-04-20 19:58:00,
2013-04-20 14:59:00,73.9,25.0,25.93,SSE,156,10.5,10.5,16,0.00,,,0.00,VWS V14.00,2013-04-20 19:59:00,
2013-04-20 15:01:00,74.5,25.4,25.93,SSE,155,3.6,10.5,16,0.00,,,0.00,VWS V14.00,2013-04-20 20:01:00,
2013-04-20 15:02:00,75.2,26.0,25.93,SE,125,5.4,10.5,16,0.00,,,0.00,VWS V14.00,2013-04-20 20:02:00,
2013-04-20 15:03:00,75.0,25.8,25.93,South,183,16.8,16.8,16,0.00,,,0.00,VWS V14.00,2013-04-20 20:03:00,
2013-04-20 15:04:00,73.4,24.5,25.93,SSE,165,8.7,16.8,16,0.00,,,0.00,VWS V14.00,2013-04-20 20:04:00,
2013-04-20 15:05:00,73.6,24.7,25.93,SSW,193,10.5,16.8,16,0.00,,,0.00,VWS V14.00,2013-04-20 20:05:00,
2013-04-20 15:06:00,73.9,25.0,25.93,South,170,3.1,16.8,16,0.00,,,0.00,VWS V14.00,2013-04-20 20:06:00,
2013-04-20 15:08:00,73.6,24.7,25.93,SSW,199,13.2,16.8,16,0.00,,,0.00,VWS V14.00,2013-04-20 20:08:00,
2013-04-20 15:09:00,74.7,25.5,25.93,SW,219,8.1,16.8,16,0.00,,,0.00,VWS V14.00,2013-04-20 20:09:00,
2013-04-20 15:10:00,74.3,25.2,25.93,South,170,9.6,16.8,16,0.00,,,0.00,VWS V14.00,2013-04-20 20:10:00,
2013-04-20 15:12:00,74.1,25.1,25.93,South,170,13.2,16.8,16,0.00,,,0.00,VWS V14.00,2013-04-20 20:12:00,
2013-04-20 15:13:00,74.7,25.5,25.93,SSW,211,7.6,8.1,16,0.00,,,0.00,VWS V14.00,2013-04-20 20:13:00,
2013-04-20 15:15:00,75.4,26.1,25.93,South,189,8.3,15.4,16,0.00,,,0.00,VWS V14.00,2013-04-20 20:15:00,
2013-04-20 15:16:00,75.4,26.1,25.93,South,189,8.3,15.4,16,0.00,,,0.00,VWS V14.00,2013-04-20 20:16:00,
2013-04-20 15:17:00,73.8,24.8,25.93,South,185,12.8,15.4,16,0.00,,,0.00,VWS V14.00,2013-04-20 20:17:00,
2013-04-20 15:18:00,73.9,25.0,25.90,South,182,6.7,15.4,16,0.00,,,0.00,VWS V14.00,2013-04-20 20:18:00,
2013-04-20 15:20:00,75.6,26.3,25.90,SSW,203,5.8,15.4,16,0.00,,,0.00,VWS V14.00,2013-04-20 20:20:00,
2013-04-20 15:21:00,75.6,26.3,25.90,South,187,8.3,15.4,16,0.00,,,0.00,VWS V14.00,2013-04-20 20:21:00,
2013-04-20 15:22:00,74.1,25.1,25.90,South,185,10.1,15.4,16,0.00,,,0.00,VWS V14.00,2013-04-20 20:22:00,
2013-04-20 15:23:00,74.1,25.1,25.90,South,173,13.2,15.4,16,0.00,,,0.00,VWS V14.00,2013-04-20 20:23:00,
2013-04-20 15:24:00,73.4,24.5,25.90,South,185,8.1,15.4,16,0.00,,,0.00,VWS V14.00,2013-04-20 20:24:00,
2013-04-20 15:26:00,75.0,25.8,25.90,SSE,150,5.8,15.4,16,0.00,,,0.00,VWS V14.00,2013-04-20 20:26:00,
2013-04-20 15:27:00,75.0,25.8,25.90,South,182,7.6,15.4,16,0.00,,,0.00,VWS V14.00,2013-04-20 20:27:00,
2013-04-20 15:28:00,75.0,25.8,25.90,SSW,203,8.7,15.4,16,0.00,,,0.00,VWS V14.00,2013-04-20 20:28:00,
2013-04-20 15:29:00,75.0,25.8,25.90,SSE,158,2.7,10.5,16,0.00,,,0.00,VWS V14.00,2013-04-20 20:29:00,
2013-04-20 15:31:00,75.0,25.8,25.90,SSW,194,10.1,12.8,16,0.00,,,0.00,VWS V14.00,2013-04-20 20:31:00,
2013-04-20 15:33:00,75.0,25.8,25.90,SSE,165,8.1,12.8,16,0.00,,,0.00,VWS V14.00,2013-04-20 20:33:00,
2013-04-20 15:34:00,75.0,25.8,25.90,SSE,158,6.3,12.8,16,0.00,,,0.00,VWS V14.00,2013-04-20 20:34:00,
2013-04-20 15:35:00,75.0,25.8,25.90,South,172,8.1,12.8,16,0.00,,,0.00,VWS V14.00,2013-04-20 20:35:00,
2013-04-20 15:36:00,75.0,25.8,25.90,South,187,6.3,12.8,16,0.00,,,0.00,VWS V14.00,2013-04-20 20:36:00,
2013-04-20 15:39:00,75.7,26.4,25.90,South,176,11.0,15.4,16,0.00,,,0.00,VWS V14.00,2013-04-20 20:39:00,
2013-04-20 15:40:00,75.7,26.4,25.90,South,177,8.7,15.4,16,0.00,,,0.00,VWS V14.00,2013-04-20 20:40:00,
2013-04-20 15:44:00,76.3,26.8,25.90,SSW,211,6.3,11.0,16,0.00,,,0.00,VWS V14.00,2013-04-20 20:44:00,
2013-04-20 15:45:00,76.3,26.8,25.90,SSW,212,6.3,11.0,16,0.00,,,0.00,VWS V14.00,2013-04-20 20:45:00,
2013-04-20 15:49:00,76.3,26.8,25.90,SSW,211,12.8,15.9,16,0.00,,,0.00,VWS V14.00,2013-04-20 20:49:00,
2013-04-20 15:50:00,76.3,26.8,25.90,South,177,4.0,15.9,16,0.00,,,0.00,VWS V14.00,2013-04-20 20:50:00,
2013-04-20 15:51:00,77.5,27.9,25.90,SSE,157,4.0,15.9,16,0.00,,,0.00,VWS V14.00,2013-04-20 20:51:00,
2013-04-20 15:52:00,77.9,28.1,25.90,South,183,4.9,15.9,16,0.00,,,0.00,VWS V14.00,2013-04-20 20:52:00,
2013-04-20 15:55:00,78.3,28.4,25.90,SSE,166,3.6,15.9,16,0.00,,,0.00,VWS V14.00,2013-04-20 20:55:00,
2013-04-20 15:56:00,77.7,28.0,25.90,South,191,4.0,15.9,16,0.00,,,0.00,VWS V14.00,2013-04-20 20:56:00,
2013-04-20 15:57:00,77.7,28.0,25.90,South,176,2.7,15.9,16,0.00,,,0.00,VWS V14.00,2013-04-20 20:57:00,
2013-04-20 15:58:00,78.1,28.3,25.90,SE,125,4.9,15.9,16,0.00,,,0.00,VWS V14.00,2013-04-20 20:58:00,
2013-04-20 16:00:00,78.3,28.4,25.90,SE,135,4.0,5.4,16,0.00,,,0.00,VWS V14.00,2013-04-20 21:00:00,
2013-04-20 16:02:00,77.5,27.9,25.90,South,182,9.6,13.2,16,0.00,,,0.00,VWS V14.00,2013-04-20 21:02:00,
2013-04-20 16:03:00,75.9,26.5,25.90,SSE,164,10.5,13.2,16,0.00,,,0.00,VWS V14.00,2013-04-20 21:03:00,
2013-04-20 16:05:00,75.9,26.5,25.90,SSE,159,8.7,13.2,16,0.00,,,0.00,VWS V14.00,2013-04-20 21:05:00,
2013-04-20 16:06:00,75.9,26.5,25.90,SSW,194,5.4,13.2,16,0.00,,,0.00,VWS V14.00,2013-04-20 21:06:00,
2013-04-20 16:07:00,75.9,26.5,25.90,South,183,5.8,14.1,16,0.00,,,0.00,VWS V14.00,2013-04-20 21:07:00,
2013-04-20 16:09:00,75.9,26.5,25.90,SSE,147,5.8,14.1,16,0.00,,,0.00,VWS V14.00,2013-04-20 21:09:00,
2013-04-20 16:10:00,75.9,26.5,25.90,SSE,166,2.7,14.1,16,0.00,,,0.00,VWS V14.00,2013-04-20 21:10:00,
2013-04-20 16:11:00,75.9,26.5,25.90,SSE,166,6.3,14.1,16,0.00,,,0.00,VWS V14.00,2013-04-20 21:11:00,
2013-04-20 16:13:00,75.9,26.5,25.90,SSE,155,5.8,14.1,16,0.00,,,0.00,VWS V14.00,2013-04-20 21:13:00,
2013-04-20 16:15:00,76.5,27.0,25.90,SSE,166,8.1,12.8,16,0.00,,,0.00,VWS V14.00,2013-04-20 21:15:00,
2013-04-20 16:16:00,76.5,27.0,25.90,South,170,7.6,12.8,16,0.00,,,0.00,VWS V14.00,2013-04-20 21:16:00,
2013-04-20 16:18:00,76.5,27.0,25.90,South,186,5.8,12.8,16,0.00,,,0.00,VWS V14.00,2013-04-20 21:18:00,
2013-04-20 16:20:00,76.5,27.0,25.87,SE,126,6.7,12.8,16,0.00,,,0.00,VWS V14.00,2013-04-20 21:20:00,
2013-04-20 16:21:00,76.5,27.0,25.87,SSW,193,8.7,12.8,16,0.00,,,0.00,VWS V14.00,2013-04-20 21:21:00,
2013-04-20 16:23:00,76.5,27.0,25.87,South,178,8.7,15.0,16,0.00,,,0.00,VWS V14.00,2013-04-20 21:23:00,
2013-04-20 16:26:00,76.5,27.0,25.87,SSW,193,10.1,15.0,16,0.00,,,0.00,VWS V14.00,2013-04-20 21:26:00,
2013-04-20 16:28:00,76.5,27.0,25.87,SSE,163,6.7,6.7,16,0.00,,,0.00,VWS V14.00,2013-04-20 21:28:00,
2013-04-20 16:29:00,76.5,27.0,25.87,SSE,167,5.8,6.7,16,0.00,,,0.00,VWS V14.00,2013-04-20 21:29:00,
2013-04-20 16:31:00,76.5,27.0,25.87,SSE,147,4.9,7.6,16,0.00,,,0.00,VWS V14.00,2013-04-20 21:31:00,
2013-04-20 16:32:00,76.5,27.0,25.87,SE,144,3.1,7.6,16,0.00,,,0.00,VWS V14.00,2013-04-20 21:32:00,
2013-04-20 16:34:00,76.5,27.0,25.87,South,173,8.3,8.3,16,0.00,,,0.00,VWS V14.00,2013-04-20 21:34:00,
2013-04-20 16:36:00,77.2,27.6,25.87,South,175,8.3,8.7,16,0.00,,,0.00,VWS V14.00,2013-04-20 21:36:00,
2013-04-20 16:37:00,77.2,27.6,25.87,South,172,11.0,11.0,16,0.00,,,0.00,VWS V14.00,2013-04-20 21:37:00,
2013-04-20 16:40:00,77.2,27.6,25.87,South,174,8.7,12.3,16,0.00,,,0.00,VWS V14.00,2013-04-20 21:40:00,
2013-04-20 16:41:00,77.2,27.6,25.87,South,185,6.3,12.3,16,0.00,,,0.00,VWS V14.00,2013-04-20 21:41:00,
2013-04-20 16:42:00,77.2,27.6,25.87,South,178,12.3,12.3,16,0.00,,,0.00,VWS V14.00,2013-04-20 21:42:00,
2013-04-20 16:43:00,77.2,27.6,25.87,South,191,8.3,12.3,16,0.00,,,0.00,VWS V14.00,2013-04-20 21:43:00,
2013-04-20 16:47:00,76.1,26.7,25.87,South,179,8.3,12.8,16,0.00,,,0.00,VWS V14.00,2013-04-20 21:47:00,
2013-04-20 16:48:00,75.7,26.4,25.87,South,191,8.7,13.2,16,0.00,,,0.00,VWS V14.00,2013-04-20 21:48:00,
2013-04-20 16:49:00,75.7,26.4,25.87,SSW,198,8.1,13.2,16,0.00,,,0.00,VWS V14.00,2013-04-20 21:49:00,
2013-04-20 16:50:00,75.7,26.4,25.87,South,183,8.7,13.2,16,0.00,,,0.00,VWS V14.00,2013-04-20 21:50:00,
2013-04-20 16:51:00,78.1,28.3,25.87,South,185,4.0,13.2,16,0.00,,,0.00,VWS V14.00,2013-04-20 21:51:00,
2013-04-20 16:54:00,77.0,27.4,25.87,South,182,5.8,13.2,16,0.00,,,0.00,VWS V14.00,2013-04-20 21:54:00,
2013-04-20 16:55:00,77.7,28.0,25.87,South,190,5.8,13.2,16,0.00,,,0.00,VWS V14.00,2013-04-20 21:55:00,
2013-04-20 16:57:00,77.7,28.0,25.87,SSE,163,5.4,13.2,16,0.00,,,0.00,VWS V14.00,2013-04-20 21:57:00,
2013-04-20 16:59:00,78.1,28.3,25.87,South,189,4.0,7.6,16,0.00,,,0.00,VWS V14.00,2013-04-20 21:59:00,
2013-04-20 17:01:00,76.3,26.8,25.87,SSE,166,8.1,13.2,16,0.00,,,0.00,VWS V14.00,2013-04-20 22:01:00,
2013-04-20 17:02:00,75.9,26.5,25.87,SSW,205,8.3,15.0,16,0.00,,,0.00,VWS V14.00,2013-04-20 22:02:00,
2013-04-20 17:04:00,76.1,26.7,25.84,South,187,8.7,15.0,16,0.00,,,0.00,VWS V14.00,2013-04-20 22:04:00,
2013-04-20 17:05:00,75.7,26.4,25.84,SSW,208,8.1,15.0,16,0.00,,,0.00,VWS V14.00,2013-04-20 22:05:00,
2013-04-20 17:07:00,75.9,26.5,25.84,SSE,158,8.1,15.0,16,0.00,,,0.00,VWS V14.00,2013-04-20 22:07:00,
2013-04-20 17:08:00,76.6,27.1,25.84,South,179,11.0,15.0,16,0.00,,,0.00,VWS V14.00,2013-04-20 22:08:00,
2013-04-20 17:10:00,74.7,25.5,25.84,South,191,3.6,15.0,16,0.00,,,0.00,VWS V14.00,2013-04-20 22:10:00,
2013-04-20 17:11:00,74.7,25.5,25.84,South,191,9.6,15.0,16,0.00,,,0.00,VWS V14.00,2013-04-20 22:11:00,
2013-04-20 17:12:00,75.4,26.1,25.84,South,170,8.7,15.0,16,0.00,,,0.00,VWS V14.00,2013-04-20 22:12:00,
2013-04-20 17:14:00,75.2,26.0,25.84,SSW,195,12.8,15.0,16,0.00,,,0.00,VWS V14.00,2013-04-20 22:14:00,
2013-04-20 17:16:00,76.5,27.0,25.84,South,170,5.8,15.0,16,0.00,,,0.00,VWS V14.00,2013-04-20 22:16:00,
2013-04-20 17:17:00,76.6,27.1,25.84,SW,221,6.3,15.0,16,0.00,,,0.00,VWS V14.00,2013-04-20 22:17:00,
2013-04-20 17:20:00,76.8,27.3,25.84,SSW,195,4.9,15.0,16,0.00,,,0.00,VWS V14.00,2013-04-20 22:20:00,
2013-04-20 17:21:00,76.3,26.8,25.84,South,171,5.8,15.0,16,0.00,,,0.00,VWS V14.00,2013-04-20 22:21:00,
2013-04-20 17:22:00,76.3,26.8,25.84,SSE,164,12.3,15.0,16,0.00,,,0.00,VWS V14.00,2013-04-20 22:22:00,
2013-04-20 17:26:00,75.6,26.3,25.84,SSE,162,3.6,15.0,16,0.00,,,0.00,VWS V14.00,2013-04-20 22:26:00,
2013-04-20 17:27:00,75.2,26.0,25.84,South,175,11.0,15.0,16,0.00,,,0.00,VWS V14.00,2013-04-20 22:27:00,
2013-04-20 17:28:00,74.5,25.4,25.84,SSW,206,10.5,15.0,16,0.00,,,0.00,VWS V14.00,2013-04-20 22:28:00,
2013-04-20 17:32:00,73.9,25.0,25.84,SSW,198,16.3,16.8,16,0.00,,,0.00,VWS V14.00,2013-04-20 22:32:00,
2013-04-20 17:33:00,74.1,25.1,25.84,SSW,197,10.1,16.8,16,0.00,,,0.00,VWS V14.00,2013-04-20 22:33:00,
2013-04-20 17:35:00,74.7,25.5,25.84,South,191,5.8,16.8,16,0.00,,,0.00,VWS V14.00,2013-04-20 22:35:00,
2013-04-20 17:37:00,76.3,26.8,25.84,South,172,7.6,16.8,16,0.00,,,0.00,VWS V14.00,2013-04-20 22:37:00,
2013-04-20 17:38:00,76.3,26.8,25.84,SSE,168,8.7,16.8,16,0.00,,,0.00,VWS V14.00,2013-04-20 22:38:00,
2013-04-20 17:40:00,74.5,25.4,25.84,SSW,209,13.2,16.8,16,0.00,,,0.00,VWS V14.00,2013-04-20 22:40:00,
2013-04-20 17:43:00,73.4,24.5,25.84,South,186,10.5,17.4,16,0.00,,,0.00,VWS V14.00,2013-04-20 22:43:00,
2013-04-20 17:45:00,76.1,26.7,25.84,SSW,193,3.6,13.2,16,0.00,,,0.00,VWS V14.00,2013-04-20 22:45:00,
2013-04-20 17:47:00,75.6,26.3,25.84,South,189,8.1,13.2,16,0.00,,,0.00,VWS V14.00,2013-04-20 22:47:00,
2013-04-20 17:48:00,75.9,26.5,25.84,SSE,152,8.7,13.2,16,0.00,,,0.00,VWS V14.00,2013-04-20 22:48:00,
2013-04-20 17:49:00,75.9,26.5,25.84,South,181,5.4,13.2,16,0.00,,,0.00,VWS V14.00,2013-04-20 22:49:00,
2013-04-20 17:50:00,75.6,26.3,25.84,SSW,200,8.7,13.2,16,0.00,,,0.00,VWS V14.00,2013-04-20 22:50:00,
2013-04-20 17:51:00,76.3,26.8,25.84,SSW,194,8.1,13.2,16,0.00,,,0.00,VWS V14.00,2013-04-20 22:51:00,
2013-04-20 17:53:00,76.5,27.0,25.84,South,180,8.1,13.2,16,0.00,,,0.00,VWS V14.00,2013-04-20 22:53:00,
2013-04-20 17:54:00,75.9,26.5,25.84,SSE,155,8.3,13.2,16,0.00,,,0.00,VWS V14.00,2013-04-20 22:54:00,
2013-04-20 17:55:00,74.7,25.5,25.84,South,171,10.5,13.2,16,0.00,,,0.00,VWS V14.00,2013-04-20 22:55:00,
2013-04-20 17:56:00,75.2,26.0,25.84,SSW,204,5.4,13.6,16,0.00,,,0.00,VWS V14.00,2013-04-20 22:56:00,
2013-04-20 18:00:00,74.3,25.2,25.84,South,182,10.5,12.8,16,0.00,,,0.00,VWS V14.00,2013-04-20 23:00:00,
2013-04-20 18:01:00,74.3,25.2,25.84,SSW,197,8.1,12.8,16,0.00,,,0.00,VWS V14.00,2013-04-20 23:01:00,
2013-04-20 18:02:00,75.0,25.8,25.84,SE,145,5.4,12.8,16,0.00,,,0.00,VWS V14.00,2013-04-20 23:02:00,
2013-04-20 18:05:00,74.8,25.7,25.84,SSW,194,7.6,12.8,16,0.00,,,0.00,VWS V14.00,2013-04-20 23:05:00,
2013-04-20 18:06:00,75.2,26.0,25.84,South,179,6.3,12.8,16,0.00,,,0.00,VWS V14.00,2013-04-20 23:06:00,
2013-04-20 18:07:00,75.6,26.3,25.84,SSE,168,4.9,12.8,16,0.00,,,0.00,VWS V14.00,2013-04-20 23:07:00,
2013-04-20 18:11:00,75.2,26.0,25.84,SSW,204,5.4,12.8,16,0.00,,,0.00,VWS V14.00,2013-04-20 23:11:00,
2013-04-20 18:12:00,75.7,26.4,25.84,SSE,167,6.3,12.8,16,0.00,,,0.00,VWS V14.00,2013-04-20 23:12:00,
2013-04-20 18:13:00,75.0,25.8,25.84,South,188,12.8,12.8,16,0.00,,,0.00,VWS V14.00,2013-04-20 23:13:00,
2013-04-20 18:17:00,73.6,24.7,25.84,SSE,149,5.8,12.8,16,0.00,,,0.00,VWS V14.00,2013-04-20 23:17:00,
2013-04-20 18:18:00,74.3,25.2,25.84,SSW,192,6.7,12.8,16,0.00,,,0.00,VWS V14.00,2013-04-20 23:18:00,
2013-04-20 18:19:00,74.3,25.2,25.84,South,184,8.7,12.8,16,0.00,,,0.00,VWS V14.00,2013-04-20 23:19:00,
2013-04-20 18:23:00,74.1,25.1,25.84,South,181,6.3,12.8,16,0.00,,,0.00,VWS V14.00,2013-04-20 23:23:00,
2013-04-20 18:24:00,74.7,25.5,25.84,SSE,163,4.9,12.8,16,0.00,,,0.00,VWS V14.00,2013-04-20 23:24:00,
2013-04-20 18:25:00,74.7,25.5,25.84,SSE,164,4.0,12.8,16,0.00,,,0.00,VWS V14.00,2013-04-20 23:25:00,
2013-04-20 18:28:00,73.9,25.0,25.84,SSW,212,5.8,6.3,16,0.00,,,0.00,VWS V14.00,2013-04-20 23:28:00,
2013-04-20 18:29:00,74.5,25.4,25.84,SSE,168,3.6,8.3,16,0.00,,,0.00,VWS V14.00,2013-04-20 23:29:00,
2013-04-20 18:30:00,73.9,25.0,25.84,SE,139,4.0,8.3,16,0.00,,,0.00,VWS V14.00,2013-04-20 23:30:00,
2013-04-20 18:31:00,74.1,25.1,25.84,SSW,195,8.1,8.3,16,0.00,,,0.00,VWS V14.00,2013-04-20 23:31:00,
2013-04-20 18:34:00,73.6,24.7,25.84,South,177,8.3,10.1,16,0.00,,,0.00,VWS V14.00,2013-04-20 23:34:00,
2013-04-20 18:35:00,73.6,24.7,25.84,South,185,5.4,10.1,16,0.00,,,0.00,VWS V14.00,2013-04-20 23:35:00,
2013-04-20 18:36:00,73.6,24.7,25.84,SSE,167,4.9,10.1,16,0.00,,,0.00,VWS V14.00,2013-04-20 23:36:00,
2013-04-20 18:40:00,73.8,24.8,25.84,South,176,4.0,10.1,16,0.00,,,0.00,VWS V14.00,2013-04-20 23:40:00,
2013-04-20 18:41:00,73.6,24.7,25.84,SSW,195,5.8,10.1,16,0.00,,,0.00,VWS V14.00,2013-04-20 23:41:00,
2013-04-20 18:42:00,73.2,25.8,25.84,SSW,196,8.1,10.1,17,0.00,,,0.00,VWS V14.00,2013-04-20 23:42:00,
2013-04-20 18:45:00,73.2,25.8,25.84,SSE,168,5.8,12.3,17,0.00,,,0.00,VWS V14.00,2013-04-20 23:45:00,
2013-04-20 18:46:00,73.4,24.5,25.84,South,175,3.1,12.3,16,0.00,,,0.00,VWS V14.00,2013-04-20 23:46:00,
2013-04-20 18:47:00,73.2,25.8,25.84,SSE,153,5.8,12.3,17,0.00,,,0.00,VWS V14.00,2013-04-20 23:47:00,
2013-04-20 18:48:00,72.9,25.5,25.84,SSE,158,6.3,12.3,17,0.00,,,0.00,VWS V14.00,2013-04-20 23:48:00,
2013-04-20 18:51:00,71.6,24.5,25.84,South,181,5.8,12.3,17,0.00,,,0.00,VWS V14.00,2013-04-20 23:51:00,
2013-04-20 18:52:00,71.2,24.2,25.84,SSE,162,3.1,12.3,17,0.00,,,0.00,VWS V14.00,2013-04-20 23:52:00,
2013-04-20 18:53:00,71.1,24.1,25.84,SSW,192,6.3,12.3,17,0.00,,,0.00,VWS V14.00,2013-04-20 23:53:00,
2013-04-20 18:54:00,70.7,23.8,25.84,South,181,4.9,12.3,17,0.00,,,0.00,VWS V14.00,2013-04-20 23:54:00,
2013-04-20 18:56:00,70.3,23.5,25.84,SSE,162,7.6,12.3,17,0.00,,,0.00,VWS V14.00,2013-04-20 23:56:00,
2013-04-20 18:57:00,70.3,23.5,25.84,South,181,5.8,12.3,17,0.00,,,0.00,VWS V14.00,2013-04-20 23:57:00,
2013-04-20 18:58:00,70.3,23.5,25.84,South,182,5.4,12.3,17,0.00,,,0.00,VWS V14.00,2013-04-20 23:58:00,
2013-04-20 19:00:00,70.5,23.6,25.84,SSE,162,3.6,6.3,17,0.00,,,0.00,VWS V14.00,2013-04-21 00:00:00,
2013-04-20 19:02:00,70.9,23.9,25.84,SSE,155,4.0,7.2,17,0.00,,,0.00,VWS V14.00,2013-04-21 00:02:00,
2013-04-20 19:03:00,71.2,24.2,25.84,SSE,162,4.0,7.6,17,0.00,,,0.00,VWS V14.00,2013-04-21 00:03:00,
2013-04-20 19:05:00,71.6,24.5,25.84,South,181,3.1,12.8,17,0.00,,,0.00,VWS V14.00,2013-04-21 00:05:00,
2013-04-20 19:06:00,71.8,24.7,25.84,South,184,5.4,12.8,17,0.00,,,0.00,VWS V14.00,2013-04-21 00:06:00,
2013-04-20 19:08:00,71.6,24.5,25.84,SSE,152,5.4,12.8,17,0.00,,,0.00,VWS V14.00,2013-04-21 00:08:00,
2013-04-20 19:09:00,71.6,24.5,25.84,SSE,165,4.0,12.8,17,0.00,,,0.00,VWS V14.00,2013-04-21 00:09:00,
2013-04-20 19:11:00,71.4,24.4,25.84,South,173,4.0,12.8,17,0.00,,,0.00,VWS V14.00,2013-04-21 00:11:00,
2013-04-20 19:13:00,71.4,24.4,25.84,SSE,154,5.4,5.8,17,0.00,,,0.00,VWS V14.00,2013-04-21 00:13:00,
2013-04-20 19:14:00,71.2,24.2,25.84,SSE,160,5.4,5.8,17,0.00,,,0.00,VWS V14.00,2013-04-21 00:14:00,
2013-04-20 19:16:00,71.2,24.2,25.84,SSW,204,5.4,6.7,17,0.00,,,0.00,VWS V14.00,2013-04-21 00:16:00,
2013-04-20 19:17:00,71.8,24.7,25.84,SSW,197,2.2,6.7,17,0.00,,,0.00,VWS V14.00,2013-04-21 00:17:00,
2013-04-20 19:18:00,71.6,24.5,25.84,SSW,207,3.1,6.7,17,0.00,,,0.00,VWS V14.00,2013-04-21 00:18:00,
2013-04-20 19:19:00,71.6,24.5,25.84,SSW,207,2.7,6.7,17,0.00,,,0.00,VWS V14.00,2013-04-21 00:19:00,
2013-04-20 19:21:00,70.9,23.9,25.84,SSW,195,10.1,10.1,17,0.00,,,0.00,VWS V14.00,2013-04-21 00:21:00,
2013-04-20 19:22:00,70.7,23.8,25.84,South,174,8.7,10.1,17,0.00,,,0.00,VWS V14.00,2013-04-21 00:22:00,
2013-04-20 19:23:00,70.5,23.6,25.84,SSE,153,6.3,10.1,17,0.00,,,0.00,VWS V14.00,2013-04-21 00:23:00,
2013-04-20 19:24:00,70.5,23.6,25.84,SSE,158,5.4,10.1,17,0.00,,,0.00,VWS V14.00,2013-04-21 00:24:00,
2013-04-20 19:25:00,70.7,23.8,25.84,South,172,3.6,10.1,17,0.00,,,0.00,VWS V14.00,2013-04-21 00:25:00,
2013-04-20 19:26:00,70.5,23.6,25.84,SSW,196,4.9,10.1,17,0.00,,,0.00,VWS V14.00,2013-04-21 00:26:00,
2013-04-20 19:27:00,70.3,23.5,25.84,SSE,163,3.6,10.1,17,0.00,,,0.00,VWS V14.00,2013-04-21 00:27:00,
2013-04-20 19:29:00,70.2,23.4,25.84,South,171,3.1,3.1,17,0.00,,,0.00,VWS V14.00,2013-04-21 00:29:00,
2013-04-20 19:31:00,69.6,24.3,25.84,SSE,149,4.9,5.4,18,0.00,,,0.00,VWS V14.00,2013-04-21 00:31:00,
2013-04-20 19:32:00,69.4,24.1,25.84,South,169,3.1,5.4,18,0.00,,,0.00,VWS V14.00,2013-04-21 00:32:00,
2013-04-20 19:34:00,69.3,24.0,25.87,South,180,2.7,8.1,18,0.00,,,0.00,VWS V14.00,2013-04-21 00:34:00,
2013-04-20 19:36:00,69.4,24.1,25.87,South,181,2.2,8.1,18,0.00,,,0.00,VWS V14.00,2013-04-21 00:36:00,
2013-04-20 19:37:00,69.3,24.0,25.87,SSE,164,2.7,8.1,18,0.00,,,0.00,VWS V14.00,2013-04-21 00:37:00,
2013-04-20 19:39:00,68.9,23.7,25.87,South,182,2.7,8.1,18,0.00,,,0.00,VWS V14.00,2013-04-21 00:39:00,
2013-04-20 19:41:00,68.7,23.5,25.87,SE,138,3.1,8.1,18,0.00,,,0.00,VWS V14.00,2013-04-21 00:41:00,
2013-04-20 19:43:00,68.4,23.2,25.87,SSE,155,4.0,8.1,18,0.00,,,0.00,VWS V14.00,2013-04-21 00:43:00,
2013-04-20 19:44:00,68.0,23.0,25.87,South,184,3.1,8.3,18,0.00,,,0.00,VWS V14.00,2013-04-21 00:44:00,
2013-04-20 19:47:00,67.6,22.6,25.87,SSE,164,5.4,8.3,18,0.00,,,0.00,VWS V14.00,2013-04-21 00:47:00,
2013-04-20 19:48:00,67.5,22.5,25.87,SSE,167,3.1,8.3,18,0.00,,,0.00,VWS V14.00,2013-04-21 00:48:00,
2013-04-20 19:50:00,67.1,22.2,25.84,SE,139,5.4,8.3,18,0.00,,,0.00,VWS V14.00,2013-04-21 00:50:00,
2013-04-20 19:52:00,66.7,21.9,25.84,SSE,162,2.7,8.3,18,0.00,,,0.00,VWS V14.00,2013-04-21 00:52:00,
2013-04-20 19:53:00,66.6,21.8,25.84,South,175,3.1,8.3,18,0.00,,,0.00,VWS V14.00,2013-04-21 00:53:00,
2013-04-20 19:54:00,66.2,21.5,25.84,South,175,3.6,8.3,18,0.00,,,0.00,VWS V14.00,2013-04-21 00:54:00,
2013-04-20 19:55:00,66.0,21.3,25.84,South,172,2.2,8.3,18,0.00,,,0.00,VWS V14.00,2013-04-21 00:55:00,
2013-04-20 19:58:00,65.7,21.0,25.84,SSE,158,2.7,3.6,18,0.00,,,0.00,VWS V14.00,2013-04-21 00:58:00,
2013-04-20 20:00:00,64.8,20.3,25.84,SSE,166,2.2,4.0,18,0.00,,,0.00,VWS V14.00,2013-04-21 01:00:00,
2013-04-20 20:01:00,64.8,20.3,25.84,SSE,166,0.0,4.0,18,0.00,,,0.00,VWS V14.00,2013-04-21 01:01:00,
2013-04-20 20:02:00,64.6,20.1,25.84,SSE,166,0.0,4.0,18,0.00,,,0.00,VWS V14.00,2013-04-21 01:02:00,
2013-04-20 20:05:00,63.9,20.8,25.87,South,171,3.6,4.9,19,0.00,,,0.00,VWS V14.00,2013-04-21 01:05:00,
2013-04-20 20:07:00,63.5,20.5,25.87,South,171,0.0,4.9,19,0.00,,,0.00,VWS V14.00,2013-04-21 01:07:00,
2013-04-20 20:08:00,63.3,20.4,25.87,South,171,0.0,4.9,19,0.00,,,0.00,VWS V14.00,2013-04-21 01:08:00,
2013-04-20 20:10:00,63.0,20.1,25.87,SSE,162,2.7,4.9,19,0.00,,,0.00,VWS V14.00,2013-04-21 01:10:00,
2013-04-20 20:12:00,62.6,19.8,25.87,South,179,2.2,4.9,19,0.00,,,0.00,VWS V14.00,2013-04-21 01:12:00,
2013-04-20 20:13:00,62.6,19.8,25.87,South,179,0.0,4.9,19,0.00,,,0.00,VWS V14.00,2013-04-21 01:13:00,
2013-04-20 20:15:00,62.6,19.8,25.87,South,178,2.7,3.6,19,0.00,,,0.00,VWS V14.00,2013-04-21 01:15:00,
2013-04-20 20:16:00,62.6,19.8,25.87,South,178,0.0,3.6,19,0.00,,,0.00,VWS V14.00,2013-04-21 01:16:00,
2013-04-20 20:17:00,62.6,19.8,25.87,South,178,2.7,3.6,19,0.00,,,0.00,VWS V14.00,2013-04-21 01:17:00,
2013-04-20 20:18:00,62.6,19.8,25.87,South,172,3.6,3.6,19,0.00,,,0.00,VWS V14.00,2013-04-21 01:18:00,
2013-04-20 20:21:00,62.2,19.5,25.84,South,170,2.7,4.9,19,0.00,,,0.00,VWS V14.00,2013-04-21 01:21:00,
2013-04-20 20:23:00,62.2,19.5,25.84,SSE,163,0.0,4.9,19,0.00,,,0.00,VWS V14.00,2013-04-21 01:23:00,
2013-04-20 20:24:00,62.1,19.3,25.84,SSE,164,3.6,4.9,19,0.00,,,0.00,VWS V14.00,2013-04-21 01:24:00,
2013-04-20 20:27:00,61.7,19.0,25.84,SSE,159,2.2,4.9,19,0.00,,,0.00,VWS V14.00,2013-04-21 01:27:00,
2013-04-20 20:28:00,61.7,19.0,25.84,SSE,163,2.2,4.9,19,0.00,,,0.00,VWS V14.00,2013-04-21 01:28:00,
2013-04-20 20:29:00,61.7,19.0,25.84,SSE,163,0.0,2.2,19,0.00,,,0.00,VWS V14.00,2013-04-21 01:29:00,
2013-04-20 20:33:00,61.7,19.0,25.84,South,177,3.1,3.6,19,0.00,,,0.00,VWS V14.00,2013-04-21 01:33:00,
2013-04-20 20:34:00,61.7,19.0,25.87,South,177,0.0,3.6,19,0.00,,,0.00,VWS V14.00,2013-04-21 01:34:00,
2013-04-20 20:35:00,61.5,18.9,25.87,South,171,2.7,3.6,19,0.00,,,0.00,VWS V14.00,2013-04-21 01:35:00,
2013-04-20 20:37:00,61.5,18.9,25.87,SSE,159,0.0,6.3,19,0.00,,,0.00,VWS V14.00,2013-04-21 01:37:00,
2013-04-20 20:38:00,61.7,19.0,25.87,South,183,4.0,6.3,19,0.00,,,0.00,VWS V14.00,2013-04-21 01:38:00,
2013-04-20 20:39:00,61.5,18.9,25.87,South,174,2.2,6.3,19,0.00,,,0.00,VWS V14.00,2013-04-21 01:39:00,
2013-04-20 20:40:00,61.5,18.9,25.87,SSE,166,2.2,6.3,19,0.00,,,0.00,VWS V14.00,2013-04-21 01:40:00,
2013-04-20 20:41:00,61.5,18.9,25.87,SSE,166,2.7,6.3,19,0.00,,,0.00,VWS V14.00,2013-04-21 01:41:00,
2013-04-20 20:42:00,61.7,19.0,25.87,SSE,164,3.6,6.3,19,0.00,,,0.00,VWS V14.00,2013-04-21 01:42:00,
2013-04-20 20:44:00,61.7,19.0,25.87,South,183,2.2,3.6,19,0.00,,,0.00,VWS V14.00,2013-04-21 01:44:00,
2013-04-20 20:45:00,61.7,19.0,25.87,South,181,5.8,5.8,19,0.00,,,0.00,VWS V14.00,2013-04-21 01:45:00,
2013-04-20 20:46:00,61.7,19.0,25.87,South,176,2.7,5.8,19,0.00,,,0.00,VWS V14.00,2013-04-21 01:46:00,
2013-04-20 20:47:00,61.7,19.0,25.87,SE,143,3.6,5.8,19,0.00,,,0.00,VWS V14.00,2013-04-21 01:47:00,
2013-04-20 20:48:00,61.7,19.0,25.87,SSE,159,3.1,5.8,19,0.00,,,0.00,VWS V14.00,2013-04-21 01:48:00,
2013-04-20 20:50:00,61.7,19.0,25.84,South,174,2.2,5.8,19,0.00,,,0.00,VWS V14.00,2013-04-21 01:50:00,
2013-04-20 20:52:00,61.5,18.9,25.84,South,176,2.2,5.8,19,0.00,,,0.00,VWS V14.00,2013-04-21 01:52:00,
2013-04-20 20:53:00,61.5,18.9,25.84,SSE,159,2.2,5.8,19,0.00,,,0.00,VWS V14.00,2013-04-21 01:53:00,
2013-04-20 20:56:00,61.9,19.2,25.84,ESE,110,2.7,5.8,19,0.00,,,0.00,VWS V14.00,2013-04-21 01:56:00,
2013-04-20 20:57:00,61.9,19.2,25.84,South,171,2.7,5.8,19,0.00,,,0.00,VWS V14.00,2013-04-21 01:57:00,
2013-04-20 20:58:00,61.9,19.2,25.84,South,171,0.0,5.8,19,0.00,,,0.00,VWS V14.00,2013-04-21 01:58:00,
2013-04-20 20:59:00,61.9,19.2,25.84,South,171,2.2,2.2,19,0.00,,,0.00,VWS V14.00,2013-04-21 01:59:00,
2013-04-20 21:01:00,61.7,19.0,25.84,East,98,0.0,5.4,19,0.00,,,0.00,VWS V14.00,2013-04-21 02:01:00,
2013-04-20 21:02:00,61.7,19.0,25.84,South,180,3.1,5.4,19,0.00,,,0.00,VWS V14.00,2013-04-21 02:02:00,
2013-04-20 21:03:00,61.7,19.0,25.84,South,180,2.2,5.4,19,0.00,,,0.00,VWS V14.00,2013-04-21 02:03:00,
2013-04-20 21:05:00,61.5,18.9,25.84,South,171,3.1,5.4,19,0.00,,,0.00,VWS V14.00,2013-04-21 02:05:00,
2013-04-20 21:07:00,61.7,19.0,25.84,South,185,2.7,5.4,19,0.00,,,0.00,VWS V14.00,2013-04-21 02:07:00,
2013-04-20 21:08:00,61.5,18.9,25.84,South,169,5.4,5.4,19,0.00,,,0.00,VWS V14.00,2013-04-21 02:08:00,
2013-04-20 21:09:00,61.3,18.8,25.84,SSE,168,3.1,5.4,19,0.00,,,0.00,VWS V14.00,2013-04-21 02:09:00,
2013-04-20 21:10:00,61.3,18.8,25.84,South,181,2.7,5.4,19,0.00,,,0.00,VWS V14.00,2013-04-21 02:10:00,
2013-04-20 21:11:00,61.3,18.8,25.84,SSE,164,5.4,5.4,19,0.00,,,0.00,VWS V14.00,2013-04-21 02:11:00,
2013-04-20 21:13:00,61.5,18.9,25.84,SSE,168,2.7,3.1,19,0.00,,,0.00,VWS V14.00,2013-04-21 02:13:00,
2013-04-20 21:15:00,61.3,18.8,25.84,SSE,153,4.0,4.0,19,0.00,,,0.00,VWS V14.00,2013-04-21 02:15:00,
2013-04-20 21:16:00,61.5,18.9,25.84,SSE,152,2.7,4.0,19,0.00,,,0.00,VWS V14.00,2013-04-21 02:16:00,
2013-04-20 21:17:00,61.3,18.8,25.84,SSE,159,4.0,4.9,19,0.00,,,0.00,VWS V14.00,2013-04-21 02:17:00,
2013-04-20 21:20:00,61.3,18.8,25.84,SE,140,0.0,4.9,19,0.00,,,0.00,VWS V14.00,2013-04-21 02:20:00,
2013-04-20 21:21:00,61.0,18.5,25.84,SSW,198,3.6,4.9,19,0.00,,,0.00,VWS V14.00,2013-04-21 02:21:00,
2013-04-20 21:22:00,61.3,18.8,25.84,SSE,164,2.7,4.9,19,0.00,,,0.00,VWS V14.00,2013-04-21 02:22:00,
2013-04-20 21:25:00,61.0,18.5,25.84,SSE,152,2.7,4.9,19,0.00,,,0.00,VWS V14.00,2013-04-21 02:25:00,
2013-04-20 21:27:00,61.0,18.5,25.84,SE,134,5.4,5.4,19,0.00,,,0.00,VWS V14.00,2013-04-21 02:27:00,
2013-04-20 21:28:00,61.3,18.8,25.84,SE,135,2.2,4.0,19,0.00,,,0.00,VWS V14.00,2013-04-21 02:28:00,
2013-04-20 21:29:00,61.3,18.8,25.84,SSW,198,5.4,5.4,19,0.00,,,0.00,VWS V14.00,2013-04-21 02:29:00,
2013-04-20 21:30:00,61.0,18.5,25.84,SSE,161,3.6,5.4,19,0.00,,,0.00,VWS V14.00,2013-04-21 02:30:00,
2013-04-20 21:33:00,61.0,18.5,25.84,SE,138,4.0,5.4,19,0.00,,,0.00,VWS V14.00,2013-04-21 02:33:00,
2013-04-20 21:34:00,61.0,18.5,25.84,SE,136,4.0,5.4,19,0.00,,,0.00,VWS V14.00,2013-04-21 02:34:00,
2013-04-20 21:35:00,61.0,18.5,25.84,SSE,168,5.4,5.8,19,0.00,,,0.00,VWS V14.00,2013-04-21 02:35:00,
2013-04-20 21:38:00,61.0,18.5,25.84,East,93,2.7,6.3,19,0.00,,,0.00,VWS V14.00,2013-04-21 02:38:00,
2013-04-20 21:40:00,60.8,18.3,25.84,South,190,2.7,6.3,19,0.00,,,0.00,VWS V14.00,2013-04-21 02:40:00,
2013-04-20 21:41:00,60.8,18.3,25.84,South,183,2.2,6.3,19,0.00,,,0.00,VWS V14.00,2013-04-21 02:41:00,
2013-04-20 21:44:00,60.6,19.4,25.84,South,170,3.6,6.3,20,0.00,,,0.00,VWS V14.00,2013-04-21 02:44:00,
2013-04-20 21:46:00,61.0,18.5,25.84,South,169,5.4,6.3,19,0.00,,,0.00,VWS V14.00,2013-04-21 02:46:00,
2013-04-20 21:47:00,61.0,18.5,25.84,SSE,167,4.0,6.3,19,0.00,,,0.00,VWS V14.00,2013-04-21 02:47:00,
2013-04-20 21:48:00,61.2,18.6,25.84,South,173,3.1,6.3,19,0.00,,,0.00,VWS V14.00,2013-04-21 02:48:00,
2013-04-20 21:49:00,61.2,18.6,25.84,SSE,168,0.0,6.3,19,0.00,,,0.00,VWS V14.00,2013-04-21 02:49:00,
2013-04-20 21:52:00,61.2,18.6,25.84,South,176,3.1,6.3,19,0.00,,,0.00,VWS V14.00,2013-04-21 02:52:00,
2013-04-20 21:53:00,61.3,18.8,25.84,SE,125,3.6,6.3,19,0.00,,,0.00,VWS V14.00,2013-04-21 02:53:00,
2013-04-20 21:54:00,61.2,18.6,25.84,South,183,3.1,6.3,19,0.00,,,0.00,VWS V14.00,2013-04-21 02:54:00,
2013-04-20 21:56:00,61.0,18.5,25.84,SSW,192,3.6,6.3,19,0.00,,,0.00,VWS V14.00,2013-04-21 02:56:00,
2013-04-20 21:58:00,61.2,18.6,25.84,SSE,166,3.6,6.3,19,0.00,,,0.00,VWS V14.00,2013-04-21 02:58:00,
2013-04-20 21:59:00,61.5,18.9,25.84,SSE,162,3.6,5.8,19,0.00,,,0.00,VWS V14.00,2013-04-21 02:59:00,
2013-04-20 22:00:00,61.5,18.9,25.84,SSE,164,5.8,5.8,19,0.00,,,0.00,VWS V14.00,2013-04-21 03:00:00,
2013-04-20 22:01:00,61.5,18.9,25.84,SSE,162,3.1,5.8,19,0.00,,,0.00,VWS V14.00,2013-04-21 03:01:00,
2013-04-20 22:04:00,61.7,19.0,25.84,SSE,152,6.3,8.1,19,0.00,,,0.00,VWS V14.00,2013-04-21 03:04:00,
2013-04-20 22:05:00,61.7,19.0,25.81,SSW,201,3.1,8.1,19,0.00,,,0.00,VWS V14.00,2013-04-21 03:05:00,
2013-04-20 22:07:00,61.7,19.0,25.81,South,180,6.7,8.1,19,0.00,,,0.00,VWS V14.00,2013-04-21 03:07:00,
2013-04-20 22:08:00,61.9,19.2,25.81,South,179,5.4,8.1,19,0.00,,,0.00,VWS V14.00,2013-04-21 03:08:00,
2013-04-20 22:09:00,62.1,19.3,25.81,SE,131,5.8,8.1,19,0.00,,,0.00,VWS V14.00,2013-04-21 03:09:00,
2013-04-20 22:11:00,62.2,19.5,25.81,SSW,196,3.6,8.1,19,0.00,,,0.00,VWS V14.00,2013-04-21 03:11:00,
2013-04-20 22:12:00,62.4,19.6,25.81,SE,143,5.4,8.1,19,0.00,,,0.00,VWS V14.00,2013-04-21 03:12:00,
2013-04-20 22:13:00,62.2,19.5,25.81,SSE,163,5.4,8.7,19,0.00,,,0.00,VWS V14.00,2013-04-21 03:13:00,
2013-04-20 22:14:00,62.2,19.5,25.81,South,177,6.3,8.7,19,0.00,,,0.00,VWS V14.00,2013-04-21 03:14:00,
2013-04-20 22:16:00,62.1,19.3,25.81,South,180,3.1,8.7,19,0.00,,,0.00,VWS V14.00,2013-04-21 03:16:00,
2013-04-20 22:17:00,62.2,19.5,25.81,South,177,5.8,8.7,19,0.00,,,0.00,VWS V14.00,2013-04-21 03:17:00,
2013-04-20 22:18:00,62.2,19.5,25.81,SE,129,3.6,8.7,19,0.00,,,0.00,VWS V14.00,2013-04-21 03:18:00,
2013-04-20 22:20:00,61.9,19.2,25.81,SSE,164,3.1,8.7,19,0.00,,,0.00,VWS V14.00,2013-04-21 03:20:00,
2013-04-20 22:22:00,61.7,19.0,25.81,South,169,3.1,8.7,19,0.00,,,0.00,VWS V14.00,2013-04-21 03:22:00,
2013-04-20 22:23:00,61.5,18.9,25.81,South,185,4.0,8.7,19,0.00,,,0.00,VWS V14.00,2013-04-21 03:23:00,
2013-04-20 22:24:00,61.7,19.0,25.81,South,183,9.6,9.6,19,0.00,,,0.00,VWS V14.00,2013-04-21 03:24:00,
2013-04-20 22:25:00,61.9,19.2,25.81,SSE,166,5.4,10.5,19,0.00,,,0.00,VWS V14.00,2013-04-21 03:25:00,
2013-04-20 22:27:00,61.7,19.0,25.81,SSE,165,5.8,10.5,19,0.00,,,0.00,VWS V14.00,2013-04-21 03:27:00,
2013-04-20 22:28:00,61.5,18.9,25.81,ESE,117,3.1,6.3,19,0.00,,,0.00,VWS V14.00,2013-04-21 03:28:00,
2013-04-20 22:30:00,61.7,19.0,25.81,SSE,157,3.1,6.3,19,0.00,,,0.00,VWS V14.00,2013-04-21 03:30:00,
2013-04-20 22:31:00,61.5,18.9,25.81,South,177,3.6,6.3,19,0.00,,,0.00,VWS V14.00,2013-04-21 03:31:00,
2013-04-20 22:32:00,61.3,18.8,25.81,SSW,212,3.1,8.7,19,0.00,,,0.00,VWS V14.00,2013-04-21 03:32:00,
2013-04-20 22:34:00,61.3,18.8,25.81,SSE,154,7.6,8.7,19,0.00,,,0.00,VWS V14.00,2013-04-21 03:34:00,
2013-04-20 22:35:00,61.3,18.8,25.81,SSE,166,3.6,8.7,19,0.00,,,0.00,VWS V14.00,2013-04-21 03:35:00,
2013-04-20 22:36:00,61.3,18.8,25.81,SSE,158,2.7,8.7,19,0.00,,,0.00,VWS V14.00,2013-04-21 03:36:00,
2013-04-20 22:39:00,61.2,18.6,25.81,South,178,8.7,11.4,19,0.00,,,0.00,VWS V14.00,2013-04-21 03:39:00,
2013-04-20 22:40:00,61.3,18.8,25.81,ESE,113,4.0,11.4,19,0.00,,,0.00,VWS V14.00,2013-04-21 03:40:00,
2013-04-20 22:41:00,61.2,18.6,25.81,South,170,3.1,11.4,19,0.00,,,0.00,VWS V14.00,2013-04-21 03:41:00,
2013-04-20 22:42:00,61.0,18.5,25.81,SSE,162,6.3,11.4,19,0.00,,,0.00,VWS V14.00,2013-04-21 03:42:00,
2013-04-20 22:44:00,61.0,18.5,25.81,SE,141,5.8,8.1,19,0.00,,,0.00,VWS V14.00,2013-04-21 03:44:00,
2013-04-20 22:45:00,61.0,18.5,25.81,SSE,165,5.8,8.1,19,0.00,,,0.00,VWS V14.00,2013-04-21 03:45:00,
2013-04-20 22:46:00,60.8,18.3,25.81,SSE,149,4.9,9.6,19,0.00,,,0.00,VWS V14.00,2013-04-21 03:46:00,
2013-04-20 22:47:00,60.8,18.3,25.81,SE,136,3.1,9.6,19,0.00,,,0.00,VWS V14.00,2013-04-21 03:47:00,
2013-04-20 22:49:00,60.6,19.4,25.81,SSE,154,6.3,9.6,20,0.00,,,0.00,VWS V14.00,2013-04-21 03:49:00,
2013-04-20 22:50:00,60.6,19.4,25.81,South,177,5.4,9.6,20,0.00,,,0.00,VWS V14.00,2013-04-21 03:50:00,
2013-04-20 22:52:00,60.3,19.0,25.81,South,173,3.1,9.6,20,0.00,,,0.00,VWS V14.00,2013-04-21 03:52:00,
2013-04-20 22:53:00,60.4,19.2,25.81,South,176,5.8,9.6,20,0.00,,,0.00,VWS V14.00,2013-04-21 03:53:00,
2013-04-20 22:54:00,60.3,19.0,25.81,SSE,165,3.1,9.6,20,0.00,,,0.00,VWS V14.00,2013-04-21 03:54:00,
2013-04-20 22:56:00,60.3,19.0,25.81,SSE,151,2.2,9.6,20,0.00,,,0.00,VWS V14.00,2013-04-21 03:56:00,
2013-04-20 22:58:00,59.9,17.6,25.81,SSE,165,3.6,9.6,19,0.00,,,0.00,VWS V14.00,2013-04-21 03:58:00,
2013-04-20 22:59:00,59.9,18.8,25.81,South,181,4.0,5.4,20,0.00,,,0.00,VWS V14.00,2013-04-21 03:59:00,
2013-04-20 23:00:00,59.7,17.4,25.81,SSE,166,3.1,5.8,19,0.00,,,0.00,VWS V14.00,2013-04-21 04:00:00,
2013-04-20 23:01:00,59.7,17.4,25.81,South,175,8.1,8.1,19,0.00,,,0.00,VWS V14.00,2013-04-21 04:01:00,
2013-04-20 23:02:00,59.7,17.4,25.81,South,186,3.6,8.1,19,0.00,,,0.00,VWS V14.00,2013-04-21 04:02:00,
2013-04-20 23:06:00,59.4,17.1,25.81,South,173,4.9,8.1,19,0.00,,,0.00,VWS V14.00,2013-04-21 04:06:00,
2013-04-20 23:07:00,59.4,17.1,25.81,SSE,168,5.4,8.1,19,0.00,,,0.00,VWS V14.00,2013-04-21 04:07:00,
2013-04-20 23:08:00,59.5,17.3,25.81,SSE,151,4.9,8.3,19,0.00,,,0.00,VWS V14.00,2013-04-21 04:08:00,
2013-04-20 23:11:00,59.4,17.1,25.81,SW,214,3.6,8.7,19,0.00,,,0.00,VWS V14.00,2013-04-21 04:11:00,
2013-04-20 23:12:00,59.4,17.1,25.81,SSE,158,8.1,8.7,19,0.00,,,0.00,VWS V14.00,2013-04-21 04:12:00,
2013-04-20 23:13:00,59.4,17.1,25.81,South,183,3.1,8.7,19,0.00,,,0.00,VWS V14.00,2013-04-21 04:13:00,
2013-04-20 23:17:00,59.2,17.0,25.81,SSW,199,7.6,8.7,19,0.00,,,0.00,VWS V14.00,2013-04-21 04:17:00,
2013-04-20 23:18:00,59.5,17.3,25.81,ESE,108,5.8,9.6,19,0.00,,,0.00,VWS V14.00,2013-04-21 04:18:00,
2013-04-20 23:19:00,59.5,17.3,25.81,SSE,168,8.1,14.5,19,0.00,,,0.00,VWS V14.00,2013-04-21 04:19:00,
2013-04-20 23:23:00,59.4,18.3,25.81,SE,133,6.3,14.5,20,0.00,,,0.00,VWS V14.00,2013-04-21 04:23:00,
2013-04-20 23:24:00,59.2,18.2,25.81,SSE,167,5.4,14.5,20,0.00,,,0.00,VWS V14.00,2013-04-21 04:24:00,
2013-04-20 23:27:00,59.2,18.2,25.81,SSE,160,3.1,14.5,20,0.00,,,0.00,VWS V14.00,2013-04-21 04:27:00,
2013-04-20 23:28:00,59.2,18.2,25.81,South,180,4.5,4.5,20,0.00,,,0.00,VWS V14.00,2013-04-21 04:28:00,
2013-04-20 23:29:00,59.0,18.0,25.81,ESE,109,3.1,5.4,20,0.00,,,0.00,VWS V14.00,2013-04-21 04:29:00,
2013-04-20 23:31:00,58.8,17.9,25.81,South,176,4.0,6.3,20,0.00,,,0.00,VWS V14.00,2013-04-21 04:31:00,
2013-04-20 23:33:00,58.8,17.9,25.81,SE,138,5.8,8.3,20,0.00,,,0.00,VWS V14.00,2013-04-21 04:33:00,
2013-04-20 23:34:00,58.8,17.9,25.81,SSE,167,4.9,8.3,20,0.00,,,0.00,VWS V14.00,2013-04-21 04:34:00,
2013-04-20 23:35:00,58.6,17.7,25.81,SSW,204,4.0,8.3,20,0.00,,,0.00,VWS V14.00,2013-04-21 04:35:00,
2013-04-20 23:38:00,58.8,17.9,25.81,South,186,4.0,8.3,20,0.00,,,0.00,VWS V14.00,2013-04-21 04:38:00,
2013-04-20 23:39:00,59.2,18.2,25.81,SSW,199,12.3,12.3,20,0.00,,,0.00,VWS V14.00,2013-04-21 04:39:00,
2013-04-20 23:40:00,58.6,17.7,25.81,SSW,203,4.0,12.3,20,0.00,,,0.00,VWS V14.00,2013-04-21 04:40:00,
2013-04-20 23:42:00,58.6,17.7,25.81,South,176,4.0,12.3,20,0.00,,,0.00,VWS V14.00,2013-04-21 04:42:00,
2013-04-20 23:43:00,58.6,17.7,25.81,SSE,168,5.4,12.3,20,0.00,,,0.00,VWS V14.00,2013-04-21 04:43:00,
2013-04-20 23:44:00,58.6,17.7,25.81,South,179,5.8,6.3,20,0.00,,,0.00,VWS V14.00,2013-04-21 04:44:00,
2013-04-20 23:45:00,58.6,17.7,25.81,SSE,147,5.8,10.5,20,0.00,,,0.00,VWS V14.00,2013-04-21 04:45:00,
2013-04-20 23:48:00,58.5,17.6,25.81,SSE,150,2.7,10.5,20,0.00,,,0.00,VWS V14.00,2013-04-21 04:48:00,
2013-04-20 23:49:00,58.3,17.4,25.81,SSE,166,4.9,10.5,20,0.00,,,0.00,VWS V14.00,2013-04-21 04:49:00,
2013-04-20 23:50:00,58.3,17.4,25.81,SSE,161,3.1,10.5,20,0.00,,,0.00,VWS V14.00,2013-04-21 04:50:00,
2013-04-20 23:51:00,58.3,17.4,25.81,South,188,3.6,10.5,20,0.00,,,0.00,VWS V14.00,2013-04-21 04:51:00,
2013-04-20 23:54:00,58.8,17.9,25.81,SSE,147,5.4,11.0,20,0.00,,,0.00,VWS V14.00,2013-04-21 04:54:00,
2013-04-20 23:55:00,58.6,17.7,25.81,South,169,5.4,11.0,20,0.00,,,0.00,VWS V14.00,2013-04-21 04:55:00,
2013-04-20 23:56:00,58.8,17.9,25.81,South,182,8.3,11.0,20,0.00,,,0.00,VWS V14.00,2013-04-21 04:56:00,
2013-04-20 23:57:00,59.0,18.0,25.81,South,190,8.7,11.4,20,0.00,,,0.00,VWS V14.00,2013-04-21 04:57:00,